GFSGBSN_con_sbcape_060.txt.gz
CAPE
15 8 10 16 29 30 14 28 27 15 18 16 5 12 4 0 0 0 1 0 0 0 6 2 0 0 0 0 0 0 0 0 0 0 0 0 0 0 0 0 1 0 0 0 0 6 0
18 21 18 28 26 5 29 34 29 26 16 14 16 6 17 8 0 0 1 0 0 0 0 0 0 1 0 0 0 0 0 0 0 0 0 0 0 0 0 0 0 0 0 0 18 30 41
15 32 30 34 40 26 13 27 32 24 20 15 5 17 8 18 6 0 0 0 0 0 0 1 0 0 0 0 0 0 0 0 0 0 0 0 0 0 0 0 0 0 0 0 0 0 1
30 19 17 30 29 31 34 32 32 35 28 25 20 20 5 3 9 0 0 0 0 0 0 2 0 0 0 0 0 0 0 0 0 0 0 0 0 0 0 0 0 0 0 1 5 0 2
24 23 38 45 35 33 37 36 28 31 41 32 24 21 18 14 10 1 0 0 0 0 1 0 0 0 0 0 0 0 0 0 0 0 0 0 0 0 0 0 0 0 0 9 24 3 41
25 42 46 41 54 46 38 38 27 45 32 40 28 23 21 18 13 2 0 0 0 0 0 0 0 0 0 0 0 0 0 0 0 0 0 0 0 0 0 0 0 1 0 19 12 39 40
28 28 42 43 52 38 49 56 44 23 36 30 46 33 24 19 17 11 0 0 0 1 1 0 0 0 0 0 0 0 0 0 0 0 0 0 0 0 0 0 2 2 0 0 14 13 9
57 52 40 43 44 33 15 45 49 37 20 60 60 38 30 22 23 14 1 0 0 0 0 0 0 0 0 0 0 0 0 0 0 0 0 0 0 0 0 0 0 0 0 0 21 15 10
68 73 72 54 55 59 25 20 5 50 33 27 42 49 40 20 20 3 0 0 0 0 0 0 0 0 0 0 0 0 0 0 0 0 0 0 0 0 0 0 0 0 0 0 6 0 2
54 55 65 73 82 82 74 67 59 41 48 31 46 39 44 15 0 0 0 0 0 3 0 0 0 0 0 0 0 0 0 0 0 0 0 0 0 0 0 0 0 15 9 0 0 20 20
57 64 67 75 80 78 84 85 78 67 56 52 28 47 42 16 8 0 0 0 23 83 0 0 0 0 0 0 0 0 0 0 0 0 0 0 0 0 0 0 0 0 10 3 4 0 21
66 65 68 69 66 69 75 73 72 76 61 58 39 46 52 41 35 0 0 0 102 31 0 0 0 0 0 0 0 0 0 0 0 0 0 0 2 0 0 0 0 0 9 0 0 0 17
60 60 62 62 62 65 75 82 77 77 89 63 54 47 47 20 21 3 20 35 49 0 0 0 0 0 0 0 0 0 0 0 0 0 0 0 0 0 0 0 1 0 5 22 60 79 94
58 55 57 58 57 57 66 80 80 69 80 77 59 46 24 1 43 14 25 123 36 0 0 0 0 0 0 0 0 0 0 0 0 0 0 0 0 0 0 0 0 0 0 56 16 33 126
50 49 55 58 57 59 56 67 79 77 76 86 66 73 70 39 18 145 52 68 0 0 0 0 0 0 6 0 0 0 0 0 0 0 0 1 0 0 0 0 0 0 36 16 59 23 74
62 62 61 62 60 53 50 52 68 80 66 67 135 62 80 54 139 156 77 24 0 0 0 0 0 0 7 14 0 0 0 0 0 0 0 0 5 1 0 0 0 0 1 65 67 47 46
51 60 70 70 65 61 52 60 68 81 55 60 73 68 48 111 215 103 13 2 0 0 0 0 0 0 0 2 7 0 0 0 0 0 0 1 40 18 8 4 0 0 0 48 68 82 139
39 53 59 63 68 74 78 63 68 70 48 45 38 37 46 110 56 20 12 0 0 0 0 0 0 1 0 0 9 32 0 4 0 0 0 0 27 14 0 0 0 0 16 22 124 40 154
61 74 88 82 75 58 59 68 59 60 54 33 26 36 51 93 20 6 11 0 4 0 0 0 0 0 0 28 53 63 72 27 13 1 9 0 36 37 40 40 9 0 0 27 71 80 136
79 71 59 80 56 24 13 46 54 53 66 31 12 9 53 71 26 13 14 0 11 2 0 4 5 17 1 14 69 91 27 54 43 0 0 39 32 27 25 13 13 8 6 49 85 152 81
69 83 81 76 52 48 51 20 35 53 50 34 12 7 15 27 20 14 21 1 8 9 0 0 13 27 5 48 0 12 79 42 27 0 7 53 53 61 28 14 51 15 1 0 0 61 40
69 75 69 56 67 67 61 51 21 49 50 34 0 51 57 21 18 36 23 22 3 3 0 0 0 0 0 45 0 20 94 30 43 8 5 47 66 64 37 22 9 1 11 9 1 16 16
69 56 52 56 61 72 65 62 44 23 42 26 1 2 72 21 48 47 29 1 1 16 11 0 0 68 208 21 166 24 14 0 129 48 66 75 102 83 33 34 61 0 12 10 19 34 37
63 69 65 64 68 77 71 66 58 17 89 0 9 13 33 47 55 56 0 7 13 26 14 1 47 58 15 168 200 12 0 0 12 17 30 37 164 100 72 44 39 1 12 4 11 9 13
68 74 84 81 78 76 52 60 62 26 48 4 36 41 33 85 51 27 12 14 38 57 62 51 36 7 66 546 164 26 6 3 1 36 21 2 95 36 85 60 23 7 2 23 16 5 18
73 77 85 76 73 72 69 36 40 61 20 29 30 40 80 61 121 7 27 39 72 71 60 38 26 101 333 643 191 17 1 0 0 0 23 1 10 42 45 21 6 6 29 14 32 10 3
67 85 80 55 57 64 65 55 34 55 70 85 22 16 221 219 156 219 80 72 47 75 86 74 71 259 335 272 188 107 23 0 6 38 30 19 6 14 21 18 21 1 17 35 50 19 128
75 59 61 53 58 65 75 25 56 58 68 53 20 8 56 133 158 39 1 55 51 149 84 47 167 270 25 205 272 129 187 14 1 0 124 76 54 25 74 46 11 25 40 55 81 193 244
97 86 32 51 60 40 75 51 62 61 68 55 50 12 75 377 201 247 151 87 192 207 242 160 127 117 165 81 223 181 474 265 49 83 52 51 46 99 40 30 212 89 68 153 238 267 272

GFSGBSN_con_sbcape_063.txt.gz
CAPE
5 25 17 2 1 3 8 28 28 23 10 6 7 4 6 10 7 6 0 0 0 0 0 0 0 1 0 0 0 0 0 0 0 0 0 0 0 0 0 0 0 0 0 0 1 0 14
3 14 32 29 5 6 7 21 20 27 21 20 15 3 6 5 18 16 5 0 0 0 0 0 3 2 0 0 0 0 0 0 0 0 0 0 0 0 0 0 0 0 0 0 0 0 0
33 20 28 26 23 20 16 33 23 13 24 23 19 16 11 4 7 16 10 0 0 0 0 0 2 16 4 0 0 0 0 0 0 0 0 0 0 0 0 0 0 0 0 0 0 0 0
22 32 18 42 42 25 32 31 35 35 21 34 37 22 14 13 10 9 9 0 0 0 0 0 3 4 0 0 0 0 0 0 0 0 0 0 0 0 0 0 0 0 0 0 0 0 0
24 27 26 43 33 48 39 38 42 43 41 25 39 30 22 12 9 8 4 0 0 0 0 0 5 0 0 0 0 0 0 0 0 0 0 0 0 0 0 0 0 0 0 0 0 0 0
27 20 47 44 43 41 41 50 44 39 31 46 41 37 34 15 11 6 1 0 0 0 0 0 4 0 0 0 0 0 0 0 0 0 0 0 0 0 0 0 0 0 0 0 4 1 0
26 33 27 47 49 45 22 48 33 42 45 34 50 47 48 29 12 14 0 0 0 0 0 0 0 0 0 0 0 0 0 0 0 0 0 0 0 0 0 0 0 0 0 0 0 25 7
44 43 44 38 52 38 27 35 25 19 43 39 37 58 59 49 29 12 0 0 0 0 0 0 0 0 0 0 0 0 0 0 0 0 0 0 0 0 0 0 0 0 0 0 0 1 0
62 60 47 48 52 66 49 63 54 31 18 51 44 57 50 55 23 1 0 0 0 0 0 0 0 0 0 0 0 0 0 0 0 0 0 0 0 0 0 0 0 0 0 0 0 8 0
68 58 63 59 64 67 71 77 72 64 54 38 55 49 40 35 1 0 0 0 0 0 1 0 0 0 0 0 0 0 0 0 0 0 0 0 0 0 0 0 0 0 0 0 0 1 0
58 57 73 70 64 59 83 92 103 93 84 69 65 51 51 55 0 0 0 0 0 1 0 0 0 0 0 0 0 0 0 0 0 0 0 0 0 0 0 0 0 0 0 0 0 0 0
58 65 70 73 57 79 80 79 83 96 95 78 75 63 66 37 5 0 0 0 7 25 0 0 0 0 0 0 0 0 0 0 0 0 0 0 0 0 0 0 0 0 0 0 0 0 0
67 70 72 75 71 75 79 81 81 86 92 91 91 75 60 6 0 2 0 6 34 14 0 0 0 0 0 0 0 0 0 0 0 0 0 0 0 0 0 0 0 0 0 0 0 0 0
68 70 76 75 74 71 69 68 68 69 77 78 91 77 56 8 0 0 20 82 7 0 0 0 0 0 0 0 0 0 0 0 0 0 0 0 0 0 0 0 0 0 0 0 0 0 0
82 80 76 74 68 69 69 68 65 71 73 60 59 75 40 3 0 6 33 18 0 0 0 0 0 0 0 0 0 0 0 0 0 0 0 0 0 0 0 0 0 0 0 0 2 8 0
91 88 79 67 57 58 67 78 73 73 66 53 48 65 18 0 0 22 56 10 0 0 0 0 0 0 0 11 2 0 0 0 0 0 0 0 0 0 0 0 0 0 0 4 6 18 7
70 70 63 57 51 53 64 77 86 76 65 48 31 33 12 2 51 42 13 0 0 0 0 0 0 0 0 0 0 0 0 0 0 0 0 0 0 0 0 0 0 0 0 0 1 3 2
61 60 48 42 44 51 70 84 91 83 51 49 22 8 7 11 48 21 7 0 0 0 0 0 0 0 0 0 0 0 0 0 0 0 0 0 0 0 0 0 0 0 0 0 0 0 8
61 53 48 49 49 57 65 76 83 63 57 35 12 15 24 1 10 16 6 9 0 0 0 0 0 0 0 0 0 0 31 0 0 0 0 0 0 0 0 0 0 0 0 0 0 0 8
59 53 50 54 56 61 77 70 70 70 73 29 2 1 28 44 0 0 2 3 4 2 0 0 0 0 0 0 0 0 2 0 0 1 0 0 0 0 0 0 0 0 0 0 0 1 1
58 57 54 49 82 73 46 49 82 72 61 9 4 2 2 21 8 3 0 2 1 6 0 0 0 0 0 0 0 0 11 0 0 0 0 0 0 0 0 0 0 0 0 0 0 0 12
67 80 76 53 71 78 85 49 47 45 60 23 0 6 6 0 16 17 16 0 0 0 0 0 0 0 0 0 0 17 115 29 15 0 0 1 0 0 0 0 0 0 0 0 0 0 31
92 73 71 80 90 98 83 54 55 52 45 14 1 0 0 4 29 19 2 0 0 2 0 0 0 0 0 0 8 179 203 76 20 1 0 0 0 0 0 0 0 0 0 0 0 0 0
82 92 98 97 110 76 71 68 51 57 55 48 1 0 1 13 3 1 1 0 2 3 0 0 0 0 0 298 366 243 57 2 4 2 13 2 6 3 12 3 0 0 0 0 0 0 0
69 67 71 82 89 80 73 60 54 50 67 51 0 3 1 1 0 0 0 0 0 0 0 0 0 0 0 0 83 86 2 0 0 2 0 0 27 18 41 8 0 0 0 0 0 0 0
60 76 89 79 70 68 63 49 51 41 61 34 19 6 10 2 7 0 2 0 0 0 0 0 0 0 1 0 28 26 39 31 3 0 0 19 0 5 0 34 2 0 0 0 3 0 0
44 49 42 56 59 70 74 69 50 38 65 56 7 12 29 4 0 14 0 0 0 0 0 0 0 0 221 1 10 24 7 23 2 0 0 2 0 0 3 0 0 6 0 5 5 0 11
40 44 52 52 56 90 92 78 65 60 56 52 1 4 17 9 0 8 39 8 6 9 3 0 12 12 7 33 8 4 5 6 0 0 20 3 1 0 0 13 13 5 18 0 0 4 0
37 43 46 54 54 92 116 90 75 98 55 49 12 0 1 41 119 36 0 8 27 133 96 10 1 0 0 4 32 28 36 5 3 0 6 53 0 0 0 0 17 42 31 0 1 0 27

GFSGBSN_con_sbcape_066.txt.gz
CAPE
15 12 6 0 0 1 14 10 14 14 14 24 21 17 17 5 6 3 13 10 2 0 0 0 1 11 0 0 0 0 0 0 0 0 0 0 0 0 0 0 0 0 0 0 0 0 0
39 41 38 26 16 10 0 18 36 22 4 9 26 17 20 12 10 12 7 8 3 0 0 0 3 15 0 0 0 0 0 0 0 0 0 0 0 0 0 0 0 0 0 0 0 0 0
11 19 30 24 43 26 15 30 28 36 30 23 32 29 25 13 9 4 0 0 0 0 0 0 1 12 2 0 0 0 0 0 0 0 0 0 0 0 0 0 0 0 0 0 0 0 0
16 14 10 31 41 21 9 40 40 32 17 21 29 23 22 20 8 3 0 0 0 0 0 0 0 14 0 0 0 0 0 0 0 0 0 0 0 0 0 0 0 0 0 0 0 0 0
21 22 22 35 35 35 47 51 61 44 43 34 39 35 19 13 11 2 0 0 0 0 0 0 4 1 0 0 0 0 0 0 0 0 0 0 0 0 0 0 0 0 0 0 0 0 0
24 22 41 47 47 45 42 44 49 58 58 42 33 39 29 16 14 3 0 0 0 0 0 0 13 0 0 0 0 0 0 0 0 0 0 0 0 0 0 0 0 0 0 0 0 0 0
30 16 24 33 56 42 26 45 42 33 46 50 47 42 55 49 35 8 0 0 0 0 0 0 0 0 0 0 0 0 0 0 0 0 0 0 0 0 0 0 0 0 0 0 0 0 5
26 18 21 31 38 46 52 49 49 39 28 24 44 37 53 53 31 9 0 0 0 0 0 0 0 0 0 0 0 0 0 0 0 0 0 0 0 0 0 0 0 0 0 0 0 0 9
38 31 27 33 45 54 57 63 56 49 51 46 34 59 44 46 16 0 0 0 0 0 0 0 0 0 0 0 0 0 0 0 0 0 0 0 0 0 0 0 0 0 0 0 0 0 0
37 43 56 45 60 70 77 62 60 54 60 49 54 51 42 31 0 0 0 0 0 0 0 0 0 0 0 0 0 0 0 0 0 0 0 0 0 0 0 0 0 0 0 0 0 0 0
42 55 67 44 66 81 70 65 73 65 68 73 72 71 62 48 0 0 0 0 0 0 0 0 0 0 0 0 0 0 0 0 0 0 0 0 0 0 0 0 0 0 0 0 0 0 0
53 58 46 71 83 87 91 65 60 54 68 81 79 86 79 24 0 0 0 0 0 5 0 0 0 0 0 0 0 0 0 0 0 0 0 0 0 0 0 0 0 0 0 0 0 0 0
58 50 61 76 87 90 72 89 61 53 62 75 87 81 75 0 0 0 0 0 52 0 0 0 0 0 0 0 0 0 0 0 0 0 0 0 0 0 0 0 0 0 0 0 0 0 0
49 51 62 73 82 73 75 88 61 66 65 54 49 74 62 0 0 0 12 21 4 0 0 0 0 0 0 0 0 0 0 0 0 0 0 0 0 0 0 0 0 0 0 0 0 0 0
57 61 57 74 78 86 91 88 84 82 47 43 45 35 33 0 0 0 15 2 0 0 0 0 0 0 0 0 0 0 0 0 0 0 0 0 0 0 0 0 0 0 0 0 0 0 0
57 65 66 62 88 98 88 77 77 76 59 44 34 32 9 0 0 16 12 2 0 0 0 0 0 0 0 0 0 0 0 0 0 0 0 0 0 0 0 0 0 0 0 0 0 0 0
63 80 77 63 83 83 88 84 73 76 70 41 28 19 6 0 12 47 9 1 0 0 0 0 0 0 0 0 0 0 0 0 0 0 0 0 0 0 0 0 0 0 0 0 0 3 0
60 71 61 72 70 70 71 80 69 68 74 47 27 3 0 7 23 12 10 1 2 0 0 0 0 0 0 0 0 0 0 0 0 0 0 0 0 0 0 0 0 0 0 0 0 0 0
60 65 63 79 67 66 59 61 65 73 76 48 7 9 3 0 3 7 0 5 0 0 0 0 0 0 0 0 0 0 0 0 2 0 1 0 0 0 0 0 0 0 0 0 0 0 0
69 82 88 87 82 73 69 71 72 78 80 57 3 0 16 11 0 0 4 12 4 12 0 0 0 0 0 0 0 0 0 0 0 0 2 0 0 0 0 0 0 0 0 0 0 0 0
75 83 82 75 72 70 71 69 73 72 76 66 4 1 0 10 4 5 0 4 10 6 14 0 0 0 0 0 0 0 0 28 11 14 0 0 0 0 0 0 0 0 0 0 0 0 0
79 73 68 68 68 71 69 66 62 65 62 58 0 4 2 0 10 12 13 0 0 1 3 4 0 0 0 0 0 0 0 5 98 29 1 0 0 0 0 0 0 0 0 0 0 0 0
77 77 70 66 70 78 84 51 72 54 67 24 0 0 0 1 0 11 0 1 4 0 0 0 0 0 0 0 0 0 35 115 115 58 20 1 4 1 0 0 0 0 0 0 0 0 0
77 85 84 86 92 102 86 70 74 77 99 64 1 3 4 0 0 0 7 4 2 4 0 0 0 0 0 0 33 66 27 19 27 22 20 0 4 16 0 0 0 0 0 0 0 0 0
85 85 94 105 95 90 86 91 100 91 60 14 14 9 2 0 0 0 0 0 0 0 0 0 0 0 0 0 9 2 0 0 0 7 57 0 1 0 0 0 0 0 0 0 0 0 0
72 69 69 69 73 78 65 70 88 77 89 24 16 27 20 0 0 0 0 0 0 0 0 0 0 0 0 0 0 0 0 0 4 29 11 0 0 0 0 1 0 0 0 0 0 0 0
48 61 66 62 57 59 68 62 67 70 84 61 30 4 5 3 0 0 0 0 0 0 0 0 0 0 0 0 0 0 0 2 8 2 0 0 0 0 0 29 0 0 0 0 12 0 0
44 48 52 56 60 59 65 69 69 73 80 75 21 1 3 1 0 5 0 0 0 0 0 0 0 0 0 0 0 0 0 3 16 14 6 4 1 0 0 5 0 0 39 6 0 0 8
33 36 46 50 50 43 56 40 62 68 47 72 39 13 8 37 9 0 1 0 0 0 0 0 0 0 0 0 0 0 5 0 0 1 8 38 0 0 0 0 16 0 58 0 0 0 0

GFSGBSN_con_sbcape_069.txt.gz
CAPE
28 38 34 23 9 8 16 14 25 19 13 13 15 17 7 0 11 8 0 0 0 0 0 0 0 4 1 0 0 0 0 0 0 0 0 0 0 0 0 0 0 0 0 0 0 0 0
19 20 26 22 25 38 33 22 27 24 20 22 21 23 19 9 13 10 2 0 0 0 0 0 0 4 4 0 0 0 0 0 0 0 0 0 0 0 0 0 0 0 0 0 0 0 0
22 17 14 41 36 23 13 12 13 46 37 35 33 39 29 16 1 6 0 0 0 0 0 0 0 3 3 0 0 0 0 0 0 0 0 0 0 0 0 0 0 0 0 0 0 0 0
26 28 21 33 35 47 34 32 13 3 14 42 41 46 50 36 6 0 0 0 0 0 0 0 0 9 0 0 0 0 0 0 0 0 0 0 0 0 0 0 0 0 0 0 0 0 0
27 26 27 31 35 38 40 30 33 30 16 28 44 24 8 12 0 1 0 0 0 0 0 0 0 8 0 0 0 0 0 0 0 0 0 0 0 0 0 0 0 0 0 0 0 0 0
31 20 24 24 29 38 44 40 34 35 29 35 49 43 21 18 15 9 0 0 0 0 0 2 10 0 0 0 0 0 0 0 0 0 0 0 0 0 0 0 0 0 0 0 0 0 0
35 30 20 15 15 20 26 39 50 41 42 43 29 39 35 25 15 0 0 0 0 0 0 0 0 0 0 0 0 0 0 0 0 0 0 0 0 0 0 0 0 0 0 0 0 0 0
38 34 11 8 18 22 31 39 59 57 53 54 49 41 57 41 11 4 0 0 0 0 1 0 0 0 0 0 0 0 0 0 0 0 0 0 0 0 0 0 0 0 0 0 0 0 0
42 33 26 19 13 25 33 41 59 59 54 56 54 52 66 40 2 0 0 0 0 0 4 0 0 0 0 0 0 0 0 0 0 0 0 0 0 0 0 0 0 0 0 0 0 0 0
40 42 24 16 21 29 30 37 52 60 57 58 63 64 54 39 0 0 0 0 0 0 0 0 0 0 0 0 0 0 0 0 0 0 0 0 0 0 0 0 0 0 0 0 0 0 0
38 60 47 32 37 60 67 71 62 56 56 58 55 62 73 48 0 0 0 0 0 0 0 0 0 0 0 0 0 0 0 0 0 0 0 0 0 0 0 0 0 0 0 0 0 0 0
46 31 29 35 57 61 94 85 79 70 60 57 56 73 81 14 0 0 0 0 2 6 0 0 0 0 0 0 0 0 0 0 0 0 0 0 0 0 0 0 0 0 0 0 0 0 0
47 38 30 31 53 53 81 103 91 70 70 60 54 66 60 0 0 0 0 0 42 5 0 0 0 0 0 0 0 0 0 0 0 0 0 0 0 0 0 0 0 0 0 0 0 0 0
30 45 46 28 54 55 72 105 79 59 62 58 46 43 31 0 0 0 0 5 17 0 0 0 0 0 0 0 0 0 0 0 0 0 0 0 0 0 0 0 0 0 0 0 0 0 0
30 37 46 55 58 60 61 89 73 66 58 55 49 25 7 0 0 0 0 2 2 0 0 0 0 0 0 0 0 0 0 0 0 0 0 0 0 0 0 0 0 0 0 0 0 0 0
32 48 48 47 56 51 55 71 75 70 63 50 33 30 10 0 0 0 14 2 8 0 0 0 0 0 0 0 0 0 0 0 0 0 0 0 0 0 0 0 0 0 0 0 0 0 0
41 44 49 56 53 68 52 54 71 71 57 48 34 27 7 0 8 10 5 2 2 0 0 0 0 0 0 0 0 0 0 0 0 0 0 0 0 0 0 0 0 0 0 0 0 0 0
68 69 60 55 55 72 68 69 75 68 59 50 38 2 1 0 1 0 0 0 0 0 0 0 0 0 0 0 0 0 0 0 0 0 0 0 0 0 0 0 0 0 0 0 0 0 0
79 76 65 63 58 61 69 62 72 60 59 46 14 9 2 0 3 0 0 0 0 0 0 0 0 0 0 0 0 0 0 0 0 0 2 0 0 0 0 0 0 0 0 0 0 0 0
83 74 70 58 65 70 69 67 78 78 73 49 1 0 11 7 0 0 0 0 0 0 0 0 0 0 0 0 0 0 0 0 6 32 20 10 0 0 0 0 0 0 0 0 0 0 0
76 75 59 61 70 83 94 77 93 83 77 61 4 1 1 1 6 0 0 0 0 5 0 1 0 0 0 0 0 0 0 0 7 115 87 45 8 0 0 0 0 0 0 0 0 0 0
71 68 63 77 99 87 100 104 87 84 87 54 0 2 9 0 16 7 2 0 3 0 0 0 0 0 0 0 0 0 0 0 0 77 84 22 34 0 0 0 0 0 0 0 0 0 0
101 97 92 87 73 93 93 82 73 74 87 31 10 0 2 3 1 6 6 6 0 6 0 0 0 0 0 0 0 0 0 0 0 99 38 46 13 2 0 0 0 0 0 0 0 0 0
103 95 90 89 84 87 83 74 68 72 79 37 17 2 3 0 0 2 6 3 7 7 0 0 0 0 0 0 0 5 0 2 30 56 37 20 0 1 1 0 1 0 0 0 0 0 0
92 92 94 94 94 96 81 70 65 66 87 42 0 13 13 3 1 0 6 0 0 0 5 0 0 0 0 0 0 0 0 26 2 14 16 18 2 0 0 0 0 0 0 0 0 0 0
95 108 110 98 97 90 84 75 82 44 68 10 5 14 14 7 1 0 0 1 0 0 0 0 0 0 0 0 0 0 0 0 21 22 66 0 0 0 0 0 0 0 0 0 0 0 0
65 88 90 90 71 75 102 88 86 87 70 33 2 1 6 3 0 0 0 0 0 0 0 0 0 0 0 0 0 0 0 0 7 25 3 0 0 2 3 7 0 0 0 1 0 0 0
39 51 60 48 54 54 59 69 85 73 70 43 8 3 10 4 0 1 0 0 0 0 0 0 0 0 0 0 0 0 0 0 0 0 0 0 0 0 3 8 0 0 1 11 0 0 0
26 39 50 31 37 56 58 55 68 67 70 58 40 26 23 7 5 0 0 3 0 0 0 0 0 0 0 0 0 0 0 0 0 3 5 27 0 0 1 0 0 0 0 0 0 0 0

GFSGBSN_con_sbcape_072.txt.gz
CAPE
19 21 21 19 22 30 35 28 14 26 26 28 25 3 0 0 3 18 10 0 0 0 0 0 0 0 0 0 0 0 0 0 0 0 0 0 0 0 0 0 0 0 0 0 0 0 0
27 27 25 20 19 16 19 22 9 22 39 41 27 25 20 0 0 8 0 0 0 0 0 0 0 2 0 0 0 0 0 0 0 0 0 0 0 0 0 0 0 0 0 0 0 0 0
12 20 25 29 26 24 20 25 23 15 16 26 46 42 32 0 0 0 0 0 0 0 0 0 0 3 2 0 0 0 0 0 0 0 0 0 0 0 0 0 0 0 0 0 0 0 0
30 41 34 37 40 45 46 42 21 20 20 10 2 28 31 31 34 11 0 0 0 0 0 0 0 5 0 0 0 0 0 0 0 0 0 0 0 0 0 0 0 0 0 0 0 0 0
20 29 25 26 35 34 39 46 38 22 14 22 18 18 20 28 12 0 0 0 0 0 0 10 0 3 0 0 0 0 0 0 0 0 0 0 0 0 0 0 0 0 0 0 0 0 0
12 25 24 8 22 21 12 37 43 53 53 47 36 28 10 10 6 2 0 0 0 0 0 0 4 0 0 0 0 0 0 0 0 0 0 0 0 0 0 0 0 0 0 0 0 0 0
39 37 21 25 15 8 16 15 43 50 52 62 50 52 33 1 0 11 0 0 0 0 0 0 0 0 0 0 0 0 0 0 0 0 0 0 0 0 0 0 0 0 0 0 0 0 0
42 27 16 18 21 10 16 28 50 46 51 52 55 53 42 42 28 10 0 0 1 0 2 0 0 0 0 0 0 0 0 0 0 0 0 0 0 0 0 0 0 0 0 0 0 0 0
57 50 41 33 17 14 19 31 49 57 49 48 51 63 60 35 32 0 0 0 0 0 7 0 0 0 0 0 0 0 0 0 0 0 0 0 0 0 0 0 0 0 0 0 0 0 0
55 51 52 49 41 15 17 33 35 41 53 55 65 77 61 28 0 0 0 0 0 0 4 0 0 0 0 0 0 0 0 0 0 0 0 0 0 0 0 0 0 0 0 0 0 0 0
62 55 50 55 33 39 34 27 25 33 74 69 54 80 65 46 0 0 0 0 0 0 0 0 0 0 0 0 0 0 0 0 0 0 0 0 0 0 0 0 0 0 0 0 0 0 0
66 54 57 54 51 43 23 40 67 59 70 69 57 70 60 18 1 0 0 0 3 15 0 0 0 0 0 0 0 0 0 0 0 0 0 0 0 0 0 0 0 0 0 0 0 0 0
74 61 66 50 48 34 20 32 56 63 61 66 66 81 63 0 0 0 0 0 21 4 0 0 0 0 0 0 0 0 0 0 0 0 0 0 0 0 0 0 0 0 0 0 0 0 0
79 74 61 44 41 41 25 39 58 66 84 74 57 53 44 0 0 0 0 5 22 0 0 0 0 0 0 0 0 0 0 0 0 0 0 0 0 0 0 0 0 0 0 0 0 0 0
69 69 65 41 44 29 30 58 57 67 85 83 70 45 22 1 0 0 0 3 0 0 0 0 0 0 0 0 0 0 0 0 0 0 0 0 0 0 0 0 0 0 0 0 0 0 0
70 60 82 75 54 52 59 61 41 64 91 89 54 66 21 0 0 0 0 0 1 2 0 0 0 0 0 0 0 0 0 0 0 0 0 0 0 0 0 0 0 0 0 0 0 0 0
77 81 82 79 63 63 60 61 61 53 82 91 58 58 7 0 0 8 0 0 0 0 0 0 0 0 0 0 0 0 0 0 0 0 0 0 0 0 0 0 0 0 0 0 0 0 0
99 70 62 58 40 70 65 66 66 66 80 78 54 11 4 0 1 3 1 0 0 0 0 0 0 0 0 0 0 0 0 0 0 0 0 0 0 0 0 0 0 0 0 0 0 0 0
91 73 47 50 71 73 67 70 67 62 92 47 23 4 6 0 0 0 0 0 0 0 0 0 0 0 0 0 0 0 0 0 0 0 8 0 0 0 0 0 0 0 0 0 0 0 0
71 76 56 46 77 78 73 65 66 71 81 39 0 1 10 6 1 0 0 0 0 0 0 0 0 0 0 0 0 0 0 0 0 0 34 18 6 10 0 0 0 0 0 0 0 0 0
77 72 62 60 66 74 68 66 70 80 96 47 0 0 2 0 3 0 0 0 0 0 0 0 0 0 0 0 0 0 0 0 0 1 23 30 5 16 13 13 0 0 0 0 0 0 0
73 67 63 64 64 64 68 68 68 75 88 59 0 5 10 0 7 3 0 0 0 0 0 0 0 0 0 0 0 0 0 0 0 0 22 55 3 5 0 10 0 0 0 0 0 0 0
87 86 74 74 75 77 75 65 73 89 95 38 11 1 19 9 4 7 0 1 0 0 0 0 0 0 0 0 0 0 0 0 0 0 0 3 3 0 0 1 1 0 0 0 0 0 0
107 110 90 88 90 91 80 76 76 82 88 30 16 15 21 3 6 6 6 3 6 0 0 0 0 0 0 0 0 0 0 0 0 0 0 4 23 0 0 1 0 0 0 0 0 0 0
95 101 97 80 77 86 90 75 76 90 74 50 30 28 14 7 4 2 8 0 0 0 0 0 0 0 0 0 0 0 0 0 0 0 0 26 1 0 10 0 0 0 0 0 0 0 0
63 64 82 97 58 88 79 80 84 90 101 49 25 26 35 11 11 0 3 1 1 0 0 0 0 0 1 3 1 12 0 0 0 7 1 0 4 20 2 23 5 0 0 0 0 0 0
28 48 53 62 70 73 83 83 84 89 98 48 29 29 1 2 21 0 1 5 0 0 0 0 0 0 0 0 14 6 4 0 0 32 0 10 1 4 9 0 0 0 0 0 0 0 0
51 22 36 48 74 84 95 82 68 76 81 47 21 18 1 2 1 4 0 0 0 0 0 0 0 0 0 0 4 3 0 0 0 1 5 0 0 6 17 16 2 0 23 81 0 0 0
43 47 18 38 49 51 73 108 77 56 61 46 23 3 4 3 11 0 0 0 0 0 0 0 0 0 0 0 0 0 0 0 0 0 0 0 0 0 0 0 0 0 0 0 0 0 0

GFSGBSN_con_sbcape_078.txt.gz
CAPE
19 19 18 33 26 26 18 16 19 29 17 15 13 5 3 0 9 6 0 0 0 0 0 0 0 1 0 0 0 0 0 0 0 0 0 0 0 0 0 0 0 0 0 0 0 0 0
20 23 27 37 32 35 25 31 23 34 37 29 32 28 10 0 0 1 17 8 0 0 0 0 0 1 0 0 0 0 0 0 0 0 0 0 0 0 0 0 0 0 0 0 0 0 0
39 27 34 35 33 38 32 31 30 28 36 24 28 31 22 4 0 0 0 0 0 0 0 1 0 6 0 0 0 0 0 0 0 0 0 0 0 0 0 0 0 0 0 0 0 0 0
45 45 28 40 50 52 33 29 22 19 33 36 31 45 35 22 19 9 1 0 0 0 0 0 3 3 0 0 0 0 0 0 0 0 0 0 0 0 0 0 0 0 0 0 0 0 0
47 56 40 26 50 39 39 43 32 21 27 35 40 63 50 32 24 14 0 0 0 0 0 0 6 2 0 0 0 0 0 0 0 0 0 0 0 0 0 0 0 0 0 0 0 0 0
26 35 50 46 42 35 28 39 39 35 44 43 44 55 53 32 30 8 0 0 0 0 1 4 3 0 0 0 0 0 0 0 0 0 0 0 0 0 0 0 0 0 0 0 0 0 0
70 50 49 49 32 26 33 35 40 50 49 46 47 43 47 42 44 14 0 0 0 0 0 0 0 0 0 0 0 0 0 0 0 0 0 0 0 0 0 0 0 0 0 0 0 0 0
50 47 51 46 50 26 44 42 49 47 39 46 36 43 56 45 45 6 0 0 9 2 2 0 0 0 0 0 0 0 0 0 0 0 0 0 0 0 0 0 0 0 0 0 0 0 0
49 50 41 35 26 45 35 37 35 46 46 35 34 46 51 42 21 0 5 0 1 0 2 0 0 0 0 0 0 0 0 0 0 0 0 0 0 0 0 0 0 0 0 0 0 0 0
50 78 45 47 55 49 31 30 30 25 41 35 47 54 54 30 13 0 21 15 0 0 12 0 0 0 0 0 0 0 0 0 0 0 0 0 0 0 0 0 0 0 0 0 0 0 0
57 58 62 60 59 57 57 77 34 48 33 31 45 34 55 22 44 34 1 0 0 4 0 0 0 0 0 0 0 0 0 0 0 0 0 0 0 0 0 0 0 0 0 0 0 0 0
59 62 61 61 75 58 80 87 67 50 26 12 21 30 54 44 40 34 3 0 1 14 0 0 0 0 0 0 0 0 0 0 0 0 0 0 0 0 0 0 0 0 0 0 0 0 0
54 64 62 56 82 64 96 77 72 46 25 12 24 39 61 62 18 1 0 0 16 0 0 0 0 0 0 0 0 0 0 0 0 0 0 0 0 0 0 0 0 0 0 0 0 0 0
54 53 50 57 58 90 56 69 34 52 26 18 42 42 55 57 31 6 15 8 5 0 0 0 0 0 0 0 0 0 0 0 0 0 0 0 0 0 0 0 0 0 0 0 0 4 2
43 57 54 48 57 50 61 63 59 59 40 51 41 57 82 67 70 44 36 26 0 1 0 0 0 0 0 0 0 0 0 0 0 0 0 0 0 0 0 0 0 0 0 0 0 0 0
48 45 67 58 69 63 54 71 82 57 40 49 49 47 44 69 116 1 33 9 0 15 0 0 0 0 0 0 0 0 1 0 0 0 0 0 0 0 0 0 0 20 4 1 8 11 13
39 43 37 49 82 56 48 47 60 44 36 42 57 70 30 97 124 34 12 25 10 0 0 0 0 0 0 0 0 0 2 0 0 0 0 0 0 0 0 0 0 0 1 0 6 14 13
57 67 70 50 57 57 51 37 62 46 52 48 53 50 77 104 60 46 38 17 0 0 0 0 0 3 0 0 0 0 0 0 0 0 0 0 0 25 8 0 0 0 0 1 15 9 6
77 74 62 67 47 80 80 46 60 74 67 74 43 55 113 101 35 20 60 12 0 0 0 0 0 0 0 0 0 0 0 0 0 0 0 0 1 0 0 0 0 1 1 1 3 5 14
92 89 79 59 51 61 54 56 83 74 83 115 54 82 60 75 35 55 28 41 17 0 0 0 1 0 0 3 2 0 0 0 0 0 1 0 40 8 9 1 0 0 0 0 4 11 11
98 90 83 86 87 73 67 69 79 85 116 152 27 53 51 38 32 30 42 34 31 11 0 0 0 2 2 8 7 2 0 0 0 0 4 11 0 0 1 0 0 0 0 0 0 0 7
69 94 75 64 78 83 95 116 113 92 128 166 38 111 67 43 43 30 45 65 43 28 9 1 0 1 2 11 4 1 5 3 0 0 0 0 0 0 0 0 0 0 0 0 0 0 0
60 111 92 38 74 69 89 97 110 95 126 118 80 46 101 22 45 56 42 63 56 48 16 5 1 5 9 3 7 8 11 7 5 0 0 0 28 26 2 0 0 0 0 0 0 21 34
103 112 108 87 72 108 84 60 79 95 141 86 90 92 45 19 68 46 34 83 56 26 4 1 1 8 11 11 9 5 6 4 22 8 0 0 7 16 28 35 0 0 0 0 22 0 11
72 76 73 75 76 84 74 71 52 75 101 181 139 135 68 45 21 10 13 79 75 43 6 4 5 6 18 16 26 20 20 24 1 0 14 0 14 58 57 30 0 0 0 0 0 0 18
55 60 62 60 51 56 54 60 69 58 88 167 151 136 144 67 39 16 52 92 98 53 43 7 3 34 32 47 26 32 38 17 23 12 4 3 10 45 60 8 0 1 29 72 1 0 1
32 33 55 60 66 59 52 45 53 72 57 101 81 176 135 103 34 66 40 54 84 42 45 12 34 45 29 101 73 43 32 12 19 22 7 8 29 26 37 45 26 19 16 92 60 58 0
39 54 58 52 58 66 81 38 50 74 64 42 45 169 75 33 35 80 66 66 52 88 52 41 30 29 22 53 58 53 56 38 11 10 12 12 34 44 42 32 25 32 33 24 19 1 11
48 45 40 38 40 43 55 38 38 52 60 63 21 83 103 62 69 96 78 63 57 48 62 25 10 19 37 45 54 45 42 25 5 21 0 38 20 28 31 24 48 49 5 0 6 14 11

GFSGBSN_con_sbcape_081.txt.gz
CAPE
17 17 20 12 23 8 23 24 23 21 17 18 17 7 0 0 0 0 0 6 1 0 0 0 0 0 0 0 0 0 0 0 0 0 0 0 0 0 0 0 0 0 0 0 0 0 0
7 21 17 26 29 24 22 28 32 36 37 42 38 20 2 0 0 0 1 0 0 0 0 0 0 1 0 0 0 0 0 0 0 0 0 0 0 0 0 0 0 0 0 0 0 0 0
36 41 41 49 24 27 19 28 28 24 22 30 36 43 36 13 0 7 8 3 0 0 0 0 0 1 0 0 0 0 0 0 0 0 0 0 0 0 0 0 0 0 0 0 0 0 0
35 35 51 53 44 46 40 30 34 28 20 14 23 41 42 30 24 18 7 0 0 0 0 0 2 0 0 0 0 0 0 0 0 0 0 0 0 0 0 0 0 0 0 0 0 0 0
43 20 27 44 44 39 33 31 28 29 27 17 15 30 40 39 22 12 0 0 0 0 0 0 0 0 0 0 0 0 0 0 0 0 0 0 0 0 0 0 0 0 0 0 0 0 0
38 48 35 27 59 39 30 30 51 37 29 16 14 34 39 31 25 1 0 0 0 0 0 0 0 0 0 0 0 0 0 0 0 0 0 0 0 0 0 0 0 0 0 0 0 2 0
42 51 38 55 49 53 24 22 50 49 37 19 28 33 30 43 25 6 0 0 0 0 2 0 0 0 0 0 0 0 0 0 0 0 0 0 0 0 0 0 0 0 0 4 14 0 0
27 46 59 43 54 42 40 26 56 43 25 22 42 31 32 40 25 11 1 0 0 0 0 0 0 0 0 0 0 0 0 0 0 0 0 0 0 0 0 0 0 0 0 0 0 0 0
41 56 59 57 48 53 34 40 49 50 23 30 35 37 37 31 21 7 15 5 0 17 2 0 0 0 0 0 0 0 0 0 0 10 0 0 0 0 0 0 0 0 0 0 0 0 0
62 58 55 65 56 55 58 52 16 28 25 30 29 26 47 25 2 27 16 11 15 28 6 0 0 0 0 0 0 0 0 0 0 2 11 1 0 0 0 0 0 0 0 0 0 0 2
51 51 54 53 58 64 53 55 31 29 23 37 43 26 42 21 33 23 11 21 22 17 0 0 0 0 0 0 0 0 0 2 0 0 4 1 0 1 0 0 0 0 0 0 0 0 0
49 46 49 61 54 77 48 47 78 32 37 33 22 27 37 16 39 43 24 22 20 27 1 0 0 0 0 0 0 0 0 0 0 0 0 0 0 2 0 0 0 0 0 0 0 0 0
60 60 63 62 55 68 58 50 54 67 44 28 32 30 18 20 38 36 66 58 38 0 0 0 0 0 0 0 0 0 0 0 0 0 0 0 0 4 5 0 0 0 2 4 4 2 2
58 62 64 68 53 51 48 57 63 64 57 27 46 32 10 27 66 58 45 55 9 0 0 0 0 0 0 0 0 0 2 0 0 0 8 8 1 0 1 0 0 1 1 2 5 31 16
59 50 65 52 54 57 57 53 45 50 70 31 40 6 41 65 109 123 63 44 0 0 0 0 0 0 0 0 0 0 5 1 6 0 19 21 7 0 0 0 0 0 0 0 1 3 4
60 64 65 72 44 68 74 51 16 30 62 44 39 62 54 71 146 123 72 18 0 0 0 0 0 0 2 0 13 3 25 2 0 0 0 2 9 0 0 13 4 1 0 0 1 5 17
66 61 56 60 65 30 57 46 58 43 54 58 57 70 29 70 163 69 31 11 0 0 2 0 1 1 1 0 0 25 28 1 0 0 32 0 0 0 0 9 20 9 1 2 17 5 15
78 78 88 75 73 54 58 66 57 44 78 45 64 60 107 164 64 72 44 19 15 3 0 1 1 7 8 4 1 0 14 0 0 0 2 2 32 32 33 4 17 5 1 5 9 9 26
85 73 71 88 75 89 64 52 55 49 57 81 68 62 107 150 57 66 44 33 28 21 7 6 7 12 27 13 0 1 4 0 0 0 0 0 12 11 3 15 11 16 10 20 42 19 3
93 100 97 68 62 68 78 57 55 45 59 137 108 84 70 126 46 48 25 45 33 29 25 19 30 36 30 25 20 8 7 1 0 0 0 0 8 67 56 44 15 17 34 13 20 53 10
77 111 114 96 71 102 61 71 66 55 77 122 135 48 65 54 83 40 54 63 47 62 40 34 41 45 40 39 32 28 10 10 0 0 0 2 14 28 46 37 4 24 60 64 86 69 56
95 49 64 71 86 80 78 67 99 85 92 136 76 67 76 82 57 64 72 23 80 61 73 33 52 56 51 46 31 53 36 24 15 1 0 5 0 1 0 0 0 0 0 16 21 17 11
55 72 76 64 53 47 69 74 84 91 97 68 75 80 90 54 61 96 94 34 43 75 57 71 78 71 53 54 17 11 15 18 17 11 7 0 9 3 5 0 5 17 0 0 0 1 8
61 74 87 79 96 54 49 68 65 76 112 90 48 68 79 34 69 56 53 108 47 110 239 138 104 69 38 34 28 18 20 20 18 20 16 6 1 24 25 14 5 0 23 7 19 12 66
79 59 56 91 105 77 56 61 55 56 100 165 117 96 78 87 59 71 58 63 23 34 157 143 68 12 8 49 66 23 39 19 15 9 17 19 11 27 27 5 0 5 15 16 3 56 87
62 61 57 53 56 47 49 49 54 55 67 181 141 150 147 83 60 37 36 49 35 62 221 206 58 37 38 54 72 33 54 47 49 16 10 25 27 66 68 23 7 3 45 31 20 43 63
36 34 40 47 48 47 40 33 48 59 57 97 31 146 192 63 40 66 72 56 53 78 217 166 53 30 22 123 75 39 74 57 52 52 19 37 53 44 40 44 34 68 23 31 59 72 6
29 16 11 44 52 47 45 41 46 52 61 28 42 111 179 103 47 68 71 136 55 99 157 106 86 66 19 219 63 77 70 65 36 46 50 36 70 57 49 52 36 10 35 76 81 41 43
47 41 47 51 57 54 52 62 53 63 63 57 14 116 152 167 50 52 36 54 85 51 33 67 26 35 57 61 61 50 91 63 54 39 86 35 21 60 21 36 138 207 39 78 44 49 44

GFSGBSN_con_sbcape_084.txt.gz
CAPE
21 6 7 17 19 16 20 8 17 22 27 34 29 17 8 3 3 3 8 3 0 0 0 0 0 0 0 0 0 0 0 0 0 0 0 0 0 0 0 0 0 0 0 0 0 0 0
30 28 24 26 5 6 7 11 12 21 26 35 36 42 30 14 7 13 18 7 1 0 0 0 0 0 0 0 0 0 0 0 0 0 0 0 0 0 0 0 0 0 0 0 0 0 0
25 29 35 41 49 15 17 13 18 24 19 24 33 53 38 19 12 5 2 1 0 0 0 0 0 1 0 0 0 0 0 0 0 0 0 0 0 0 0 0 0 0 0 0 0 0 0
34 46 37 38 45 42 30 23 20 17 17 24 22 33 59 42 33 22 0 0 0 0 0 0 0 3 0 0 0 0 0 0 0 0 0 0 0 0 0 0 0 0 0 0 0 0 0
13 17 45 51 59 53 44 37 31 31 31 35 25 33 51 51 36 10 0 0 0 0 0 0 4 0 0 0 0 0 0 0 0 0 0 0 0 0 0 0 0 0 0 0 0 0 0
15 18 41 54 62 58 56 49 42 56 40 35 28 33 53 39 33 0 0 0 0 0 0 0 0 0 0 0 0 0 0 0 0 0 0 0 0 0 0 0 0 0 0 0 0 0 0
46 30 19 45 55 38 55 50 45 70 37 39 29 33 28 37 16 0 0 0 0 0 3 0 0 0 0 0 0 0 0 0 0 0 0 0 0 0 0 0 0 0 0 0 0 0 0
46 47 38 48 54 61 56 49 65 73 38 30 25 34 23 9 0 0 0 9 2 0 0 0 0 0 0 0 0 0 0 0 0 0 0 0 0 0 0 0 1 0 0 0 0 0 0
48 49 38 24 54 53 52 60 85 70 42 38 30 27 16 12 0 0 9 5 3 8 1 0 0 0 0 0 0 0 0 0 5 7 2 0 0 0 0 0 0 1 0 0 0 0 0
44 45 51 54 60 49 55 60 59 60 53 35 38 28 22 3 0 14 15 19 17 18 3 0 0 0 0 0 0 0 0 0 6 2 12 17 2 0 0 0 3 0 0 0 0 0 1
26 31 55 53 59 63 86 51 40 46 42 37 35 20 15 9 2 0 20 17 23 14 0 0 0 0 0 0 0 0 0 0 4 8 0 0 0 0 7 1 3 0 0 0 0 1 4
49 45 51 50 61 69 77 75 71 54 38 38 35 20 15 0 12 0 20 40 34 6 0 0 0 0 0 0 0 0 0 0 1 6 7 0 0 0 12 1 2 0 6 0 4 5 10
47 52 55 54 63 66 57 51 64 55 33 45 40 30 2 5 3 3 78 65 30 1 0 0 0 0 0 0 0 0 0 0 0 0 0 1 0 0 0 3 6 0 1 0 1 8 2
44 54 53 55 50 71 65 38 37 64 50 54 63 43 0 0 0 43 67 51 7 0 1 0 0 0 0 0 2 3 0 0 0 0 0 3 2 0 0 0 0 3 8 3 9 13 1
47 52 70 64 52 48 48 65 56 45 57 46 53 17 6 0 50 141 72 33 0 0 0 0 0 0 0 6 0 21 0 20 0 0 0 1 16 0 0 0 0 0 5 0 0 0 6
67 71 64 64 51 55 52 59 79 42 2 25 33 40 24 21 139 136 62 5 0 0 0 0 0 0 4 21 0 32 26 3 7 2 0 0 0 0 2 0 0 1 1 1 3 9 28
61 69 77 76 63 55 39 34 51 71 25 48 57 53 1 25 172 63 51 3 0 0 1 0 0 12 9 14 3 12 9 0 0 0 0 0 3 0 0 5 2 3 3 5 20 3 41
69 83 71 80 77 86 64 50 68 68 73 53 61 53 106 187 59 27 15 6 0 0 1 0 0 0 9 21 19 34 59 0 0 0 0 8 3 0 0 0 0 17 9 0 44 71 11
66 81 94 91 82 78 75 66 68 59 90 88 70 35 24 220 37 39 12 7 6 3 7 1 0 3 1 38 17 11 30 0 0 0 0 0 0 0 0 0 0 1 0 1 1 10 15
54 63 89 90 104 81 69 79 83 74 74 42 75 60 9 142 73 32 30 22 17 8 3 16 11 17 16 28 32 18 13 1 0 0 0 0 0 6 10 15 12 0 0 32 10 17 2
55 52 72 65 81 89 93 63 77 77 96 59 40 42 45 57 51 39 27 34 31 21 34 15 16 28 22 30 28 26 21 12 2 0 0 0 0 0 0 7 1 12 3 4 1 8 18
56 68 66 55 45 41 68 93 95 88 89 70 70 31 22 33 50 34 37 16 17 34 45 31 35 28 29 26 22 29 30 42 38 2 0 0 0 0 0 6 0 0 0 0 4 0 22
37 77 86 56 50 41 47 86 71 78 99 61 60 85 44 32 25 61 58 32 6 29 52 27 70 28 44 32 24 37 44 7 12 2 5 9 0 3 0 0 7 5 20 17 3 0 3
34 46 64 61 57 50 38 32 67 69 86 42 37 85 79 26 16 30 33 62 52 49 36 33 47 55 95 53 70 53 41 30 10 0 0 1 1 13 11 0 9 0 20 30 28 29 29
63 55 51 73 77 87 71 55 45 66 85 69 21 110 51 42 24 13 5 56 51 141 101 60 9 11 83 89 87 45 36 30 6 0 0 1 13 27 26 2 0 0 0 0 0 4 129
61 67 65 59 54 52 48 69 54 66 70 81 64 107 144 62 17 14 33 52 65 97 28 120 82 96 86 37 74 34 37 31 37 2 0 7 35 39 54 10 3 0 0 19 14 10 21
33 35 46 44 39 43 43 45 48 57 70 63 35 105 134 71 5 19 29 19 58 53 51 30 131 68 22 182 160 49 42 75 46 42 3 21 52 34 25 27 19 8 21 8 54 76 23
28 44 44 44 38 29 43 42 43 46 49 47 23 93 50 65 2 22 28 50 58 56 57 121 5 31 10 80 169 76 101 92 97 37 21 19 43 34 48 38 30 46 25 71 92 49 16
47 58 51 47 44 35 42 43 51 50 33 54 10 25 68 81 2 28 60 78 5 28 6 3 17 17 1 47 95 89 157 242 70 43 86 34 5 15 0 4 26 154 153 60 44 55 9

GFSGBSN_con_sbcape_087.txt.gz
CAPE
38 33 29 20 24 13 7 9 18 31 31 30 33 13 27 28 13 9 27 21 7 1 0 0 2 3 0 0 0 0 0 0 0 0 0 0 0 0 0 0 0 0 0 0 0 0 0
33 33 29 33 27 44 21 12 14 34 34 30 29 35 20 19 9 2 12 2 0 0 1 1 4 8 0 0 0 0 0 0 0 0 0 0 0 0 0 0 0 0 0 0 0 0 0
24 21 35 48 39 36 53 51 21 34 38 35 41 39 23 10 11 11 0 0 0 0 0 2 4 13 0 0 0 0 0 0 0 0 0 0 0 0 0 0 0 0 0 0 0 0 0
18 12 7 36 49 62 47 63 44 25 28 23 23 34 47 45 37 26 0 0 0 1 0 1 6 5 0 0 0 0 0 0 0 0 0 0 0 0 0 0 0 0 0 0 0 0 0
36 27 10 20 40 56 68 63 62 46 32 47 36 43 43 51 32 6 0 0 0 0 0 0 3 2 0 0 0 0 0 0 0 0 0 0 0 0 0 0 0 0 0 0 0 0 0
23 27 39 24 20 45 63 70 79 61 72 62 43 48 52 50 25 0 0 0 0 0 0 0 0 1 0 0 0 0 0 0 0 0 0 0 0 0 0 0 0 0 0 0 0 0 0
31 37 34 33 23 33 62 57 85 78 61 61 45 39 40 49 15 0 0 0 0 0 0 0 0 0 0 0 0 0 0 0 0 0 0 0 0 0 0 0 0 0 0 0 0 0 0
16 20 38 46 28 25 50 60 88 95 81 55 60 51 36 19 2 0 0 0 1 0 0 0 0 0 0 0 0 0 0 0 0 0 0 0 0 0 0 0 0 0 0 0 0 0 0
32 37 37 40 40 33 49 55 67 69 61 68 57 44 36 25 0 0 0 1 1 2 0 0 0 0 0 0 0 0 0 0 0 0 0 0 0 0 0 0 0 0 0 0 0 0 0
19 19 18 18 34 37 46 67 63 50 65 70 64 58 61 35 0 0 0 1 9 2 1 0 0 0 0 0 0 0 0 0 0 0 0 0 0 0 0 0 0 0 0 0 19 0 0
37 33 40 39 40 46 54 64 73 66 68 74 73 53 51 26 0 0 0 0 12 13 0 0 0 0 0 0 0 0 0 0 0 0 0 0 0 0 0 0 0 0 0 19 6 0 1
30 34 36 40 41 42 50 56 64 61 79 71 90 68 53 0 0 0 0 0 11 8 0 0 0 0 0 0 0 0 0 0 0 0 0 0 0 0 1 2 3 1 2 22 4 1 7
24 25 32 42 42 43 44 69 69 53 59 75 101 61 25 0 0 0 0 11 7 4 0 0 0 0 0 0 0 0 0 0 0 0 0 0 0 0 0 0 1 24 18 51 22 15 0
25 26 28 39 58 63 54 50 53 60 62 66 95 74 1 0 0 0 0 30 9 0 1 0 0 0 0 0 0 0 0 0 0 0 0 0 0 0 0 0 1 1 16 7 0 0 1
42 45 47 49 55 69 65 56 52 54 69 70 62 0 0 0 0 0 31 18 0 0 0 0 0 0 0 0 0 0 0 0 0 0 0 0 0 0 0 1 1 2 2 0 1 0 12
23 32 39 43 62 74 65 57 55 63 69 31 9 9 0 0 0 7 28 8 0 0 0 0 0 0 0 8 0 10 20 0 0 0 0 0 0 0 3 0 4 0 6 14 10 1 14
26 36 49 60 56 64 73 68 45 54 72 58 24 21 0 0 27 30 8 8 0 0 0 0 0 0 0 0 0 0 14 0 0 0 0 0 0 0 0 0 0 1 15 14 1 14 54
43 43 50 68 84 74 72 72 62 78 81 19 46 6 15 5 16 22 21 12 0 0 0 0 0 0 0 0 0 0 31 0 0 0 0 0 3 0 0 0 0 0 0 24 47 0 15
45 47 51 53 77 89 85 77 73 62 82 24 98 0 8 30 4 23 6 4 3 0 0 0 1 0 0 0 0 0 41 0 0 0 0 0 2 0 0 0 0 0 2 10 8 2 6
52 49 45 55 78 82 86 104 69 66 77 30 4 2 0 7 4 18 2 1 0 0 0 0 0 0 0 0 0 4 23 12 0 0 0 0 0 0 6 15 4 10 6 11 17 14 1
45 63 58 47 65 88 75 105 84 66 98 12 12 16 6 24 33 6 3 62 50 0 0 0 0 0 0 0 0 0 0 10 49 11 0 0 0 0 0 2 0 0 8 5 9 0 19
49 61 54 40 43 50 35 70 95 112 97 13 28 16 2 0 0 10 13 0 0 0 0 0 5 0 0 0 0 0 26 34 10 28 7 0 0 0 0 0 0 5 9 0 0 10 13
45 45 60 47 52 53 24 48 74 95 43 19 8 0 9 0 0 6 6 2 0 0 0 0 7 0 2 10 32 27 16 14 14 10 2 0 0 0 0 0 0 0 34 21 6 18 16
48 39 36 41 59 63 57 39 57 67 39 0 0 0 16 0 0 0 0 12 15 14 4 6 29 17 10 0 12 42 26 22 15 13 8 0 0 2 0 0 0 36 29 30 26 56 61
67 35 32 24 62 76 65 76 47 22 62 0 1 19 17 2 0 0 0 0 0 24 12 36 28 5 0 7 9 6 1 5 2 0 0 0 0 5 9 4 0 0 0 0 0 28 38
45 29 36 62 58 51 51 60 54 50 58 14 0 2 21 19 0 0 0 0 0 4 13 10 29 5 12 2 1 0 0 1 0 0 0 0 0 3 9 19 0 0 1 5 28 33 12
43 30 28 50 54 50 48 52 56 57 58 20 4 0 32 11 0 0 1 8 0 8 5 0 13 2 8 1 0 0 0 3 12 25 0 0 1 6 0 5 5 0 0 8 38 2 0
26 28 36 44 57 60 57 50 53 50 62 14 9 0 12 10 0 1 0 0 6 0 0 10 0 3 1 0 6 0 1 6 13 20 2 0 4 7 9 29 6 53 18 32 2 0 0
19 28 41 56 49 45 55 56 45 53 52 25 8 0 8 19 0 0 0 0 0 16 25 6 21 2 1 0 0 0 3 12 4 17 10 0 0 0 0 0 5 16 18 0 0 0 0

GFSGBSN_con_sbcape_093.txt.gz
CAPE
9 15 11 12 17 23 30 22 16 54 41 39 25 16 2 1 5 12 30 31 18 3 6 6 5 14 1 0 0 0 0 0 0 0 0 0 0 0 0 0 0 0 0 0 0 0 0
17 19 14 6 0 6 19 27 25 43 59 60 59 57 29 17 10 6 29 26 18 6 3 5 4 22 5 0 0 0 0 0 0 0 0 0 0 0 0 0 0 0 0 0 0 0 0
17 12 21 29 16 13 8 10 23 35 34 57 61 61 54 25 24 12 25 22 15 5 0 1 6 17 3 0 0 0 0 0 0 0 0 0 0 0 0 0 0 0 0 0 0 0 0
13 30 21 18 25 22 17 17 16 40 34 38 46 47 60 54 40 34 25 12 0 0 0 1 5 7 2 0 0 0 0 0 0 0 0 0 0 0 0 0 0 0 0 0 0 0 0
18 22 22 25 27 29 32 36 33 26 44 44 44 56 85 76 45 42 21 0 0 0 0 3 9 8 0 0 0 0 0 0 0 0 0 0 0 0 0 0 0 0 0 0 0 0 0
17 18 22 23 26 29 28 29 47 38 40 36 37 65 84 71 45 20 1 0 0 0 0 1 5 1 0 0 0 0 0 0 0 0 0 0 0 0 0 0 0 0 0 0 0 0 0
8 11 20 20 25 24 28 32 25 46 36 35 38 39 63 50 31 12 0 0 0 0 0 0 0 0 0 0 0 0 0 0 0 0 0 0 0 0 0 0 0 0 0 0 0 0 0
6 4 7 11 14 23 34 34 36 39 38 49 51 55 60 52 26 19 0 0 9 1 4 0 0 0 0 0 0 0 0 0 0 0 0 0 0 0 0 0 0 0 0 0 0 0 0
8 14 19 21 24 29 35 33 30 37 39 38 58 60 57 79 31 0 0 0 0 0 7 0 0 0 0 0 0 0 0 0 0 0 0 0 0 0 0 0 0 0 0 0 0 0 0
6 14 15 19 21 27 32 28 31 34 39 41 34 51 93 76 0 0 0 0 0 0 0 0 0 0 0 0 0 0 0 0 0 0 0 0 0 0 0 0 0 0 0 0 0 0 0
4 6 7 9 13 20 18 26 37 43 42 60 48 50 80 67 0 0 0 0 0 1 0 0 0 0 0 0 0 0 0 0 0 0 0 0 0 0 0 0 0 0 0 0 0 0 0
0 1 7 12 14 10 13 23 33 50 63 62 57 69 69 2 0 0 0 0 1 12 0 0 0 0 0 0 0 0 0 0 0 0 0 0 0 0 0 0 0 0 0 0 0 9 3
15 13 25 33 30 29 33 41 41 48 52 68 69 60 27 3 0 0 0 0 20 16 0 0 0 0 0 0 0 0 0 0 0 0 0 0 0 0 0 0 0 6 25 8 9 12 0
14 18 23 24 21 28 26 27 44 54 59 66 80 84 1 0 0 0 0 50 9 0 0 0 0 0 0 0 0 0 0 0 0 0 0 0 0 0 0 0 0 1 23 3 0 1 0
10 24 27 30 12 26 32 35 29 55 54 63 26 0 0 0 0 0 1 6 6 5 1 0 0 4 0 0 0 0 0 0 0 0 0 0 0 0 0 0 0 0 15 12 34 17 1
21 17 20 29 27 32 42 49 54 55 62 60 0 0 0 0 0 0 5 17 1 3 0 0 0 0 0 0 0 1 0 0 0 0 0 0 0 0 0 0 0 4 2 30 27 27 23
20 10 23 34 35 36 45 51 69 65 63 34 17 0 0 0 0 26 0 14 0 2 0 3 0 0 0 0 0 10 11 0 0 0 0 0 0 0 0 0 0 1 28 11 24 10 32
11 17 24 32 40 41 36 47 63 68 30 0 3 4 0 0 19 2 7 0 1 24 17 1 1 0 0 0 0 14 0 0 0 0 0 0 0 0 0 0 5 9 7 39 12 44 4
23 24 20 31 40 33 32 46 67 67 25 0 13 11 0 9 3 1 0 10 4 10 11 0 0 1 0 0 0 12 3 0 0 0 0 0 0 0 0 0 0 2 6 4 11 13 5
30 17 19 38 39 38 35 48 72 60 42 0 1 0 0 0 7 8 0 0 2 28 8 0 0 1 0 0 0 0 9 12 0 0 0 0 0 0 0 1 0 4 3 4 11 10 8
24 13 22 32 28 34 35 38 39 38 44 0 1 0 0 0 14 0 2 8 8 7 13 18 14 1 0 0 0 0 0 0 0 0 0 0 0 0 0 0 0 0 0 12 11 12 37
17 14 15 29 29 37 36 36 71 36 31 0 0 0 0 0 21 56 18 7 33 8 0 1 0 0 0 0 0 0 0 0 0 0 0 0 0 0 0 0 0 0 0 0 0 7 10
35 17 21 26 20 39 30 45 66 41 0 0 0 0 0 0 0 0 10 9 7 3 0 1 0 0 0 0 0 0 0 0 0 0 0 2 3 1 0 0 0 0 0 0 9 0 4
30 21 28 22 41 37 27 40 64 58 1 0 0 0 0 0 0 0 0 2 3 0 2 0 0 0 3 0 0 0 0 0 0 0 0 0 0 0 0 0 0 0 0 12 2 0 2
27 36 26 26 50 43 40 37 43 58 47 0 0 0 0 0 0 0 0 0 0 0 0 9 8 1 0 0 0 0 0 0 0 0 0 0 0 0 0 0 0 0 0 0 0 0 18
27 37 25 42 40 65 44 46 52 61 72 0 0 0 0 3 0 0 0 0 0 0 0 0 0 0 0 0 0 0 0 0 0 0 0 0 0 0 0 3 0 0 0 0 4 1 3
26 32 37 44 39 63 58 46 56 55 75 3 0 0 0 3 0 0 0 0 0 0 0 0 1 0 0 0 1 0 0 0 0 3 0 0 0 0 0 2 0 0 0 16 8 0 0
27 27 26 32 42 51 41 53 51 58 66 19 3 0 0 0 0 0 0 0 0 0 0 0 0 0 0 0 0 0 0 0 0 0 0 0 0 0 0 7 0 0 0 38 1 0 0
16 12 11 30 42 37 36 42 43 49 49 35 8 0 0 5 0 0 0 0 0 0 0 0 1 8 20 10 1 0 0 0 0 1 3 10 0 1 0 0 6 3 4 2 0 0 0

GFSGBSN_con_sbcape_096.txt.gz
CAPE
15 15 14 9 1 4 12 17 19 31 29 30 26 27 20 17 5 5 25 27 6 0 0 3 11 14 4 0 0 0 0 0 0 0 0 0 0 0 0 0 0 0 0 0 0 0 0
10 5 0 22 10 10 11 7 2 14 26 31 54 54 47 30 17 7 11 16 7 1 0 0 5 18 14 0 0 0 0 0 0 0 0 0 0 0 0 0 0 0 0 0 0 0 0
6 12 12 10 14 19 18 13 7 8 11 32 39 47 38 41 22 13 6 12 0 0 0 0 1 12 3 0 0 0 0 0 0 0 0 0 0 0 0 0 0 0 0 0 0 0 0
10 13 17 16 18 21 21 23 20 19 22 29 34 31 66 54 51 47 18 6 0 0 0 0 3 2 0 0 0 0 0 0 0 0 0 0 0 0 0 0 0 0 0 0 0 0 0
3 8 15 13 8 8 13 17 27 17 17 26 28 37 58 69 72 55 44 0 0 0 0 0 2 3 0 0 0 0 0 0 0 0 0 0 0 0 0 0 0 0 0 0 0 0 0
10 3 9 12 14 18 19 18 19 15 16 29 31 28 53 65 73 49 32 0 0 0 0 0 3 1 0 0 0 0 0 0 0 0 0 0 0 0 0 0 0 0 0 0 0 0 0
5 5 5 8 12 11 14 17 13 24 32 36 36 37 25 65 49 45 4 0 0 0 0 0 1 0 0 0 0 0 0 0 0 0 0 0 0 0 0 0 0 0 0 0 0 0 0
4 12 21 22 14 14 18 17 14 16 26 26 21 22 20 30 19 24 0 0 0 2 6 0 0 0 0 0 0 0 0 0 0 0 0 0 0 0 0 0 0 0 0 0 0 0 0
6 3 11 12 13 13 14 14 16 19 23 25 37 33 26 36 2 0 0 0 0 0 24 0 0 0 0 0 0 0 0 0 0 0 0 0 0 0 0 0 0 0 0 0 0 0 0
4 6 5 9 9 6 7 8 7 11 20 28 32 37 65 65 0 0 0 0 0 0 4 0 0 0 0 0 0 0 0 0 0 0 0 0 0 0 0 0 0 0 0 0 0 0 0
8 1 4 6 7 4 3 5 6 8 12 19 30 35 60 61 0 0 0 0 0 6 1 0 0 0 0 0 0 0 0 0 0 0 0 0 0 0 0 0 0 0 0 0 0 0 0
0 10 13 15 15 8 4 6 6 12 16 21 26 42 64 0 0 0 0 0 1 25 0 0 0 0 0 0 0 0 0 0 0 0 0 0 0 0 0 0 0 0 0 0 0 0 0
13 26 15 12 9 5 8 8 6 7 12 23 33 42 32 3 0 0 0 0 26 4 0 3 0 0 0 0 0 0 0 0 0 0 0 0 0 0 0 0 0 0 0 0 0 5 0
8 15 16 16 15 2 4 12 15 7 7 24 36 36 1 0 0 0 0 0 3 0 0 0 0 0 0 0 0 0 0 0 0 0 0 0 0 0 0 0 0 0 0 0 0 0 0
9 10 19 12 14 9 7 11 19 23 30 34 0 0 0 0 0 0 0 0 0 34 118 29 0 0 1 4 1 0 0 0 0 0 0 0 0 0 0 0 0 0 2 1 33 0 12
9 18 8 3 18 20 10 16 26 34 41 25 0 0 0 0 0 0 0 0 12 11 32 28 15 0 0 0 0 0 0 0 0 0 0 0 0 0 0 0 0 0 0 14 33 6 4
10 26 10 15 19 20 16 19 25 43 36 0 0 0 0 0 0 6 0 0 0 6 43 47 36 18 1 0 12 41 3 0 0 0 0 0 0 0 0 0 0 0 2 1 47 20 55
21 12 15 19 16 26 17 18 30 49 6 0 1 0 0 26 18 0 0 0 0 0 6 14 12 46 8 0 2 2 1 0 0 0 0 0 0 0 0 0 0 2 2 1 62 19 18
15 29 18 12 21 31 22 25 41 22 1 0 0 0 0 18 0 0 0 0 26 1 0 9 2 10 0 0 0 1 1 0 0 0 0 0 0 0 0 0 0 1 6 11 9 8 0
25 29 16 13 25 25 26 28 40 19 11 0 0 0 0 4 32 5 3 0 0 2 15 9 12 5 0 0 0 0 0 2 0 0 0 0 0 0 0 0 0 0 0 2 48 10 11
18 31 13 7 14 20 22 33 38 7 24 0 0 0 0 0 1 0 4 0 1 11 26 4 5 3 0 3 1 0 1 0 0 0 0 0 0 0 0 0 0 0 0 0 9 0 24
7 7 14 8 9 18 16 36 41 31 10 0 0 0 3 0 0 0 3 6 7 3 29 8 0 0 2 15 0 0 0 0 0 0 0 0 0 0 0 0 0 0 0 0 0 0 0
19 23 26 10 20 15 25 31 47 34 0 0 0 0 0 0 0 0 3 3 0 12 5 1 0 3 0 0 0 0 0 0 0 0 0 0 0 0 0 0 0 0 0 6 3 0 0
34 25 15 3 20 15 35 36 33 47 0 0 0 0 0 0 0 0 0 0 0 0 0 0 4 0 4 0 0 0 0 0 0 0 0 0 0 0 0 0 0 0 0 3 0 2 0
27 27 18 21 17 13 43 39 37 45 17 0 0 0 0 0 0 0 0 0 0 0 0 0 6 0 0 0 0 0 0 0 0 0 0 0 0 0 0 0 0 0 0 0 2 0 19
31 37 15 24 17 32 44 40 34 38 53 0 0 0 0 0 0 0 0 0 0 0 0 0 0 0 0 0 0 0 0 0 0 0 0 0 0 0 0 0 0 0 0 0 15 0 0
33 48 12 28 18 32 27 39 41 45 56 4 0 0 8 1 0 0 0 0 0 0 0 0 0 1 0 0 0 0 0 0 0 0 0 0 0 0 0 8 0 0 0 0 4 0 0
41 44 23 27 27 22 23 43 40 47 61 16 0 0 1 0 0 0 0 0 0 0 0 0 0 0 0 0 0 0 0 0 0 0 0 0 0 0 0 1 0 0 0 0 1 0 1
44 33 19 21 16 26 31 45 31 49 61 37 11 0 0 5 0 0 0 0 0 0 0 0 0 28 14 14 1 1 0 0 0 0 0 8 3 26 0 0 7 2 6 2 0 0 1

GFSGBSN_con_sbcape_099.txt.gz
CAPE
1 0 5 11 7 6 7 5 3 3 4 8 22 29 24 26 24 21 31 34 4 0 0 1 2 8 5 0 0 0 0 0 0 0 0 0 0 0 0 0 0 0 0 0 0 0 0
7 8 0 1 6 4 6 3 1 2 4 9 12 20 21 16 4 3 7 34 15 0 0 0 2 12 8 0 0 0 0 0 0 0 0 0 0 0 0 0 0 0 0 0 0 0 0
1 3 19 13 13 15 14 10 7 17 11 15 16 23 22 12 5 1 2 9 8 0 0 0 2 7 4 0 0 0 0 0 0 0 0 0 0 0 0 0 0 0 0 0 0 0 0
0 8 13 12 8 6 8 13 18 15 9 9 13 9 10 5 0 2 5 11 0 0 0 1 5 1 5 0 0 0 0 0 0 0 0 0 0 0 0 0 0 0 0 0 0 0 0
2 5 4 5 6 11 13 14 14 14 19 16 14 10 9 21 9 13 17 2 0 0 0 0 1 1 0 0 0 0 0 0 0 0 0 0 0 0 0 0 0 0 0 0 0 0 0
2 2 4 5 5 7 8 10 19 18 13 7 7 4 3 18 11 10 6 0 0 0 6 2 9 3 0 0 0 0 0 0 0 0 0 0 0 0 0 0 0 0 0 0 0 0 0
2 4 7 5 2 2 5 5 19 15 12 10 11 12 12 4 5 3 0 0 0 0 0 0 0 3 0 0 0 0 0 0 0 0 0 0 0 0 0 0 0 0 0 0 0 0 0
4 4 6 4 4 5 15 21 17 15 14 14 9 8 7 7 1 0 0 0 1 9 8 0 0 0 0 0 0 0 0 0 0 0 0 0 0 0 0 0 0 0 0 0 0 0 0
2 4 4 10 9 10 11 10 10 10 8 9 7 7 6 14 0 0 0 0 0 0 36 0 0 0 0 0 0 0 0 0 0 0 0 0 0 0 0 0 0 0 0 0 0 0 0
3 2 1 4 5 9 10 14 17 14 8 5 3 5 3 40 0 0 0 0 0 0 44 0 0 0 0 0 0 0 0 0 0 0 0 0 0 0 0 0 0 0 0 0 0 0 0
1 1 0 7 17 18 13 10 9 7 7 6 5 6 1 12 0 0 0 0 0 5 8 0 0 0 0 0 0 0 0 0 0 0 0 0 0 0 0 0 0 0 0 0 0 0 0
0 4 12 12 15 9 10 9 6 5 6 6 3 2 3 0 0 0 0 0 1 14 0 0 14 1 0 0 0 0 0 0 0 0 0 0 0 0 0 0 0 0 0 0 0 1 0
7 13 12 13 15 7 7 8 12 11 8 3 3 0 0 0 0 0 0 0 2 2 0 0 0 5 4 0 0 0 0 0 0 0 0 0 0 0 0 0 0 0 0 0 0 3 0
8 4 13 15 12 15 8 8 13 17 16 12 1 0 0 0 0 0 0 0 1 0 0 4 0 0 2 1 0 0 0 0 0 0 0 0 0 0 0 0 0 0 0 0 0 0 0
2 4 17 9 8 16 13 12 15 20 24 10 0 0 0 0 0 0 0 0 0 8 28 18 0 4 18 16 1 0 0 0 0 0 0 0 0 0 0 0 0 0 0 0 0 0 0
3 5 18 7 12 13 14 20 17 19 25 0 0 0 0 0 0 0 0 0 0 0 12 135 25 25 12 1 0 4 1 0 0 0 0 0 0 0 0 0 0 0 0 5 3 1 3
1 5 18 9 13 8 19 19 15 23 4 0 0 0 0 0 0 5 0 0 0 0 0 88 14 8 20 12 3 39 18 0 0 0 0 0 0 0 0 0 0 0 2 0 1 11 4
8 23 11 19 7 8 25 22 23 15 0 0 0 0 0 0 0 0 0 0 0 0 0 0 53 49 13 28 46 26 0 0 0 0 0 0 0 0 0 0 0 0 0 0 3 19 3
13 15 24 14 2 14 24 26 30 2 0 0 0 0 0 10 0 1 0 0 0 0 0 1 22 21 4 19 14 30 2 0 0 0 0 0 0 15 21 0 0 3 1 1 6 15 2
17 16 27 11 5 18 14 23 34 8 0 0 0 0 0 10 1 0 5 0 0 0 0 14 17 4 12 17 7 9 8 0 0 0 0 0 0 0 0 0 0 0 0 2 11 20 6
19 29 27 9 0 4 11 17 32 24 2 0 1 0 0 0 0 0 1 8 10 19 0 4 3 21 7 7 7 2 1 0 0 0 0 0 0 0 0 0 0 0 0 0 0 0 6
26 22 7 9 7 1 10 9 29 27 0 0 0 0 0 1 0 0 0 0 0 1 24 18 6 5 0 41 15 11 0 0 0 0 0 0 0 0 0 0 0 0 0 0 0 0 0
37 12 10 20 10 11 10 13 32 46 0 0 0 0 0 0 0 0 0 0 0 0 0 4 4 4 15 1 2 0 0 0 0 0 0 0 0 0 0 0 0 0 0 0 0 7 4
20 37 14 15 6 5 9 24 37 48 0 0 0 0 0 0 0 0 0 0 0 0 0 0 1 1 0 0 0 0 0 0 0 0 0 0 0 0 0 0 0 0 0 0 0 0 1
39 44 13 10 13 23 4 32 38 42 2 0 0 0 0 0 0 0 0 0 0 0 0 0 0 0 0 0 0 0 0 0 0 0 0 0 0 0 0 0 0 0 0 0 0 0 1
36 39 20 35 19 28 8 40 40 46 58 0 0 0 0 0 0 0 0 0 0 0 0 0 0 0 0 0 0 0 0 0 0 0 0 0 0 0 0 0 0 0 0 0 1 0 5
52 39 38 39 15 23 15 41 30 48 55 3 0 1 8 1 0 0 0 0 2 0 1 0 0 0 0 0 0 2 0 0 0 0 0 0 0 0 3 2 0 0 0 0 0 1 12
31 22 40 50 20 27 17 22 33 52 58 7 0 0 2 0 0 0 0 0 0 0 0 0 0 0 5 4 5 3 1 0 1 0 6 0 0 0 3 0 0 1 0 4 3 3 6
38 41 41 42 24 26 31 26 39 47 53 34 4 0 0 3 0 0 0 0 0 0 0 0 0 3 34 3 4 2 3 1 1 7 0 32 16 12 5 30 17 8 10 9 3 6 12

GFSGBSN_con_sbcape_102.txt.gz
CAPE
1 0 4 6 0 0 2 1 0 1 2 2 1 2 3 2 1 1 1 5 0 0 0 0 3 6 3 0 0 0 0 0 0 0 0 0 0 0 0 0 0 0 0 0 0 0 0
0 3 0 0 2 7 8 2 0 9 4 2 4 6 4 2 1 1 0 2 0 0 0 0 4 11 6 0 0 0 0 0 0 0 0 0 0 0 0 0 0 0 0 0 0 0 0
0 16 14 9 5 1 1 1 10 11 6 3 9 9 7 6 2 1 1 0 2 0 0 0 2 12 5 0 0 0 0 0 0 0 0 0 0 0 0 0 0 0 0 0 0 0 0
2 8 10 4 0 1 5 10 6 5 10 12 11 8 5 1 0 1 0 0 0 0 0 0 5 3 1 0 0 0 0 0 0 0 0 0 0 0 0 0 0 0 0 0 0 0 0
2 2 0 0 0 0 0 4 9 4 3 4 4 3 3 13 7 4 1 0 0 0 0 0 10 10 0 0 0 0 0 0 0 0 0 0 0 0 0 0 0 0 0 0 0 0 0
0 1 0 0 0 1 4 6 5 3 3 5 4 5 8 9 8 2 1 0 0 0 6 10 12 5 0 0 0 0 0 0 0 0 0 0 0 0 0 0 0 0 0 0 0 0 0
0 0 10 4 3 7 5 4 12 10 6 6 6 6 7 1 0 2 0 0 0 0 0 0 0 0 0 0 0 0 0 0 0 0 0 0 0 0 0 0 0 0 0 0 0 0 0
1 1 0 2 3 0 1 3 5 2 2 2 5 4 8 0 0 0 0 0 11 11 17 0 0 0 0 0 0 0 0 0 0 0 0 0 0 0 0 0 0 0 0 0 0 0 0
2 0 0 0 0 1 3 4 5 6 6 7 5 2 7 0 0 0 1 1 7 31 15 0 0 0 0 0 0 0 0 0 0 0 0 0 0 0 0 0 0 0 0 0 0 0 0
2 1 0 0 1 7 6 2 2 3 4 4 2 2 5 0 2 0 1 0 2 20 18 0 0 0 1 4 0 0 0 0 0 1 0 0 0 0 0 0 0 0 0 0 0 0 0
2 0 0 1 12 6 0 2 2 3 1 1 1 2 1 0 6 1 0 0 1 37 0 0 5 0 0 16 13 0 0 0 6 15 0 0 0 0 1 0 0 0 0 0 0 0 0
0 2 10 3 2 0 0 1 5 5 1 2 0 0 0 2 0 0 0 0 28 59 1 0 0 35 16 4 25 20 0 0 10 61 4 30 19 3 1 3 0 0 0 0 2 2 0
0 7 8 4 3 1 0 1 4 5 2 1 0 0 0 0 1 4 4 3 39 14 0 30 22 16 4 3 61 2 0 0 16 70 66 78 88 44 37 48 28 6 15 21 18 11 0
11 2 2 10 2 0 2 3 2 4 5 1 0 0 0 0 1 4 11 26 8 0 21 26 19 29 56 55 131 8 0 1 35 18 39 15 39 79 44 32 13 11 1 15 0 0 2
14 0 0 5 0 0 5 4 4 2 7 0 0 0 1 3 6 5 25 12 4 26 28 19 8 25 15 10 105 30 0 0 21 40 33 14 21 52 53 26 22 14 18 3 1 0 0
3 0 9 4 1 0 0 5 4 5 6 0 0 0 5 7 9 9 23 1 4 2 0 3 34 44 19 17 59 40 11 1 21 21 31 20 34 50 19 21 12 8 6 4 6 9 0
2 5 10 4 4 0 4 6 6 1 0 0 0 0 4 12 28 30 64 10 9 3 8 17 1 4 38 25 26 21 50 1 3 29 3 37 72 58 50 42 28 25 6 2 9 7 10
7 2 17 3 2 0 8 8 10 0 0 0 0 1 0 12 23 30 33 15 10 0 0 16 4 17 28 20 11 29 60 33 0 8 20 26 77 100 53 1 23 15 8 5 27 5 11
21 12 12 17 1 0 4 9 17 0 0 0 0 0 0 28 23 21 23 16 13 5 2 0 5 10 9 11 16 62 1 3 0 17 47 58 77 89 59 54 44 21 19 18 3 6 20
15 12 15 12 4 0 0 5 21 4 0 0 4 4 0 18 6 15 13 15 7 3 5 8 41 10 5 29 22 29 40 9 0 0 0 2 13 46 52 39 16 19 17 18 18 18 12
22 15 25 15 1 0 0 7 18 9 0 0 7 2 1 4 3 6 4 10 1 11 1 19 56 40 15 38 23 24 25 14 0 1 0 0 0 0 0 0 0 0 0 0 0 0 0
32 28 21 3 0 0 0 4 12 18 0 0 59 5 5 0 0 1 0 0 0 2 16 6 20 29 35 47 35 36 26 9 12 13 4 0 1 0 0 0 0 0 0 0 0 0 14
24 29 6 14 13 1 3 0 19 31 0 8 0 0 4 0 0 0 3 0 0 0 0 1 14 13 14 1 4 6 10 2 0 7 0 0 0 0 0 0 0 0 0 0 0 10 40
34 31 18 19 19 0 0 0 23 40 0 0 0 1 11 4 0 0 0 0 0 0 0 0 6 1 0 0 3 1 0 0 0 0 0 1 0 0 0 0 0 0 1 0 0 26 35
34 15 25 10 14 0 10 0 28 35 4 2 0 8 10 17 0 0 0 0 0 0 0 0 0 0 1 0 9 0 0 0 0 0 0 0 0 0 0 0 0 33 4 1 1 21 7
29 31 39 10 21 24 18 1 31 25 53 1 0 3 17 34 2 0 2 0 2 1 0 0 0 0 1 4 4 0 2 0 1 2 0 0 1 0 0 0 0 5 1 0 1 27 12
31 28 40 17 31 22 20 4 33 24 43 2 1 2 13 33 5 0 4 5 7 10 8 9 1 2 4 41 23 15 10 3 16 9 12 14 23 17 1 3 11 7 1 0 14 12 11
27 31 40 37 42 17 20 12 10 13 47 22 6 0 17 31 17 0 0 1 7 10 10 4 20 21 15 14 14 19 26 42 43 47 41 36 41 31 11 9 24 11 5 12 15 10 15
20 25 9 49 40 22 27 19 11 25 33 45 7 0 1 8 19 0 0 0 0 0 9 7 13 23 26 19 8 12 11 18 5 33 34 44 16 25 4 17 28 21 16 9 3 6 17

GFSGBSN_con_sbcape_105.txt.gz
CAPE
10 9 5 3 0 0 0 0 0 0 0 0 0 0 2 2 0 0 0 0 0 0 0 0 0 5 1 0 0 0 0 0 0 0 0 0 0 0 0 0 0 0 0 0 0 0 0
1 0 6 4 2 2 0 0 0 2 0 0 0 1 1 2 3 3 1 1 0 0 0 0 0 6 0 0 0 0 0 0 0 0 0 0 0 0 0 0 0 0 0 0 0 0 0
1 8 10 7 0 0 0 0 3 0 0 1 3 4 4 3 2 1 0 0 0 0 0 0 2 7 0 0 0 0 0 0 0 0 0 0 0 0 0 0 0 0 0 0 0 0 0
9 19 11 0 0 0 2 0 0 0 0 0 2 1 1 1 0 0 0 0 0 0 0 0 0 9 0 0 0 0 0 0 0 0 0 0 0 0 0 0 0 0 0 0 0 0 0
10 12 6 0 0 0 0 0 0 0 0 0 1 0 0 1 1 4 0 0 0 0 0 0 19 11 0 0 0 0 0 0 0 0 0 0 0 0 0 0 0 0 0 0 0 0 0
7 2 2 1 0 0 2 2 0 0 0 0 0 0 0 0 1 0 0 0 0 0 2 12 7 3 0 0 0 0 0 0 5 0 0 0 0 0 0 5 0 0 1 0 0 0 1
5 2 0 1 2 0 0 0 0 0 0 0 0 0 0 0 0 0 0 0 0 0 0 0 0 0 0 0 0 0 0 1 5 2 0 0 0 0 0 0 0 8 5 14 0 1 2
5 7 5 3 0 0 0 0 0 0 0 0 0 1 1 0 0 0 0 0 0 0 1 0 0 0 0 0 0 0 0 1 21 8 0 0 0 0 0 0 2 5 5 2 0 0 0
8 2 2 4 0 0 0 0 0 0 0 0 0 2 1 0 0 0 0 0 3 19 12 0 0 0 0 0 0 0 0 0 2 49 18 0 0 0 0 0 5 8 2 0 0 0 0
11 3 0 0 1 1 0 0 0 0 0 0 0 1 0 0 0 0 0 0 15 46 22 0 0 6 13 15 0 15 1 0 0 17 88 0 0 0 0 0 1 5 0 0 0 0 0
7 7 0 3 6 1 0 0 0 0 1 0 0 1 0 0 1 0 0 1 20 41 4 0 45 128 106 73 3 8 36 0 0 55 49 35 0 8 2 0 0 0 0 0 2 0 0
6 0 0 4 0 0 0 0 0 0 1 0 1 1 0 0 3 1 1 4 51 74 7 5 48 49 14 55 70 28 21 44 0 16 95 68 12 31 3 0 0 0 12 9 4 3 10
0 7 14 4 0 0 0 0 0 0 1 0 0 0 0 1 2 2 18 45 42 61 1 19 10 23 15 47 27 95 174 72 7 26 47 67 95 31 16 13 23 15 52 85 73 70 6
5 9 9 10 0 0 0 0 0 0 0 0 0 0 1 5 6 17 51 59 25 10 14 24 12 0 14 0 0 8 130 69 1 48 138 85 72 39 35 18 9 55 48 27 21 28 11
15 4 0 12 0 0 0 0 0 0 0 0 0 3 9 5 11 21 80 47 34 28 20 5 1 13 25 0 7 12 168 90 7 27 2 81 7 15 48 34 9 27 46 10 20 42 25
24 0 2 4 0 0 0 0 0 0 0 0 0 0 1 3 11 34 78 20 24 15 15 14 23 5 6 3 27 21 168 73 10 38 0 60 45 26 53 85 50 50 60 56 62 28 25
12 1 8 6 0 0 0 0 0 0 0 0 8 6 0 2 9 52 53 17 10 13 8 1 7 12 16 20 34 15 66 2 9 54 1 9 58 31 67 79 69 83 61 77 76 102 109
14 6 4 5 3 0 0 0 0 0 0 0 2 11 0 6 77 34 32 17 3 18 28 13 6 14 29 32 24 27 40 15 28 35 7 17 32 45 79 35 67 94 111 92 81 54 19
13 5 8 7 8 0 0 0 0 0 0 13 3 0 0 25 35 35 9 13 4 6 7 12 18 29 46 12 8 3 87 83 48 59 68 67 84 46 119 74 113 70 75 93 70 46 86
17 12 15 19 6 2 0 0 0 0 0 0 12 16 7 14 6 25 9 9 8 6 11 11 16 21 68 52 3 16 82 15 58 5 8 42 48 19 37 42 76 74 67 53 68 97 46
18 14 9 30 10 0 0 0 0 0 0 0 28 4 1 21 31 8 3 3 2 1 1 10 50 30 45 42 12 36 19 22 9 1 13 36 7 7 25 43 110 57 59 32 37 3 2
18 18 25 22 3 0 0 0 0 1 0 17 1 19 1 0 0 5 2 0 0 0 3 0 9 16 23 41 34 24 20 16 25 0 0 0 0 0 0 0 22 16 0 0 0 0 16
30 23 36 12 6 0 0 0 0 2 0 17 1 0 10 1 1 4 3 0 0 0 0 1 11 4 1 2 21 12 38 37 8 4 7 0 0 0 0 0 0 1 1 5 11 26 37
36 32 20 11 7 8 0 0 0 4 1 21 19 23 20 23 1 2 0 0 0 0 0 0 0 1 0 1 28 26 18 36 40 14 23 6 1 0 0 2 1 15 23 16 73 6 9
51 32 23 20 23 9 0 0 0 5 26 23 17 13 19 26 3 0 0 0 0 0 0 0 0 0 1 50 31 15 37 10 16 3 1 10 9 1 1 12 11 40 34 29 21 15 8
37 38 25 29 22 11 5 1 0 6 30 25 26 20 25 25 24 0 2 0 1 1 1 0 0 0 5 93 61 23 32 27 4 19 2 1 7 15 8 1 16 8 30 14 22 22 13
36 27 20 35 28 20 11 6 0 13 20 15 1 1 40 50 30 4 35 18 8 7 4 6 0 4 5 98 102 30 31 6 22 17 19 19 25 33 8 19 19 8 0 0 32 16 11
53 44 32 50 39 33 18 14 5 9 15 72 44 35 42 49 28 20 24 22 18 31 29 10 24 20 16 17 14 12 40 23 33 18 22 36 37 42 52 22 29 9 0 5 21 14 17
54 38 28 50 47 45 32 13 0 0 15 44 36 12 1 56 18 8 3 3 5 12 34 28 12 41 33 35 17 13 40 55 12 90 15 48 11 23 12 13 17 11 10 12 9 9 12

GFSGBSN_con_sbcape_108.txt.gz
CAPE
23 17 5 1 0 0 0 0 0 0 0 0 0 0 1 0 1 1 0 0 0 0 0 0 0 1 0 0 0 0 0 0 0 0 0 0 0 0 0 0 0 0 0 0 0 0 0
16 15 10 7 1 1 1 0 0 0 0 0 1 2 1 0 0 0 0 0 0 0 0 0 0 2 4 0 0 0 0 0 0 0 0 0 0 0 0 0 0 0 0 0 0 0 0
19 13 19 9 5 3 0 0 0 0 0 0 0 0 0 0 0 0 0 0 0 0 0 0 0 4 4 0 0 0 0 0 0 0 0 0 0 0 0 0 0 0 0 0 0 0 0
10 11 16 12 1 0 0 0 0 0 0 0 0 0 0 0 0 0 0 0 0 0 0 0 0 7 4 0 0 0 0 0 0 0 0 0 0 0 0 0 0 0 1 0 0 0 0
7 25 24 6 0 0 0 0 0 0 0 0 0 0 0 0 0 0 0 0 0 0 0 0 1 7 1 0 0 0 0 0 0 0 0 0 0 0 0 0 0 0 0 0 0 0 0
24 26 17 9 0 0 0 0 0 0 0 0 0 0 0 0 0 0 0 0 0 0 0 0 7 18 0 0 0 0 0 0 0 0 0 0 0 0 0 1 3 0 0 0 0 0 0
25 22 19 6 0 0 1 0 0 0 0 0 0 0 0 0 0 0 0 0 0 0 0 0 0 0 0 0 0 0 0 0 0 0 0 0 0 0 0 0 0 0 4 5 0 0 0
29 15 13 8 6 1 0 0 0 0 0 0 0 0 0 0 0 0 0 0 0 0 0 0 0 0 0 0 0 0 0 0 0 0 3 21 19 0 0 0 0 0 1 5 3 2 0
40 40 21 11 5 1 0 0 0 0 0 0 0 0 0 0 0 0 0 0 0 1 0 0 0 0 0 0 0 0 33 19 0 0 3 44 0 0 0 0 0 0 0 8 0 0 0
35 13 15 13 5 6 5 0 0 0 0 0 0 0 0 0 0 0 0 0 0 5 3 0 0 7 22 4 0 50 75 81 12 0 2 25 12 25 0 0 0 2 0 18 0 0 0
26 18 13 10 11 12 1 0 0 0 0 0 0 0 0 0 0 0 0 0 0 9 1 0 8 36 0 10 0 109 2 82 49 1 2 0 15 44 1 0 0 0 9 3 0 0 0
30 26 12 20 21 9 0 0 0 0 0 0 0 0 0 0 0 0 0 0 8 19 3 0 0 0 0 0 0 15 65 18 8 6 1 0 17 46 0 5 0 3 0 0 0 0 7
24 19 17 25 15 3 0 0 0 0 0 0 0 0 0 0 0 0 0 10 35 27 0 0 0 0 0 1 1 11 9 6 19 8 0 0 7 6 6 10 11 0 2 13 19 7 0
21 16 24 20 16 6 0 0 0 0 0 0 0 0 0 0 0 0 4 24 35 0 0 0 0 0 0 7 25 6 0 11 80 20 0 1 76 53 34 22 0 0 0 24 8 1 0
22 31 16 21 12 1 0 0 0 0 0 0 0 0 5 0 0 1 14 24 0 0 0 0 0 0 0 0 3 10 1 90 89 0 0 64 42 18 94 3 9 2 6 0 0 12 41
22 24 10 25 6 1 0 0 0 0 0 0 0 4 2 0 0 1 50 11 0 0 0 0 0 2 9 5 17 8 2 118 26 0 22 35 141 35 105 28 9 40 9 15 8 80 50
29 18 8 21 3 1 0 0 0 0 0 0 0 3 0 0 0 33 37 2 2 0 0 3 0 4 7 28 20 19 8 113 0 69 15 0 11 29 4 15 28 33 27 17 20 15 14
42 10 13 21 13 6 0 0 0 0 0 0 0 13 0 0 31 66 11 8 0 1 0 6 0 21 33 21 19 5 14 2 17 48 9 15 19 49 16 26 20 2 4 6 68 16 29
39 12 20 18 15 1 0 0 0 0 0 0 7 0 0 0 37 23 5 13 3 1 1 6 10 20 12 32 14 9 6 76 80 174 115 37 3 31 14 0 3 16 25 59 16 3 61
27 18 9 25 22 0 0 0 0 0 0 0 12 17 4 11 3 9 7 13 10 1 0 1 8 21 26 21 1 24 23 24 7 8 4 114 23 15 52 9 44 36 43 29 48 63 46
34 28 23 16 24 4 0 0 0 0 0 0 31 7 2 19 25 1 12 15 8 0 0 0 11 4 11 12 10 37 18 3 7 20 7 0 26 3 6 54 59 4 29 63 61 8 28
34 61 46 37 15 1 0 0 0 0 0 1 0 20 0 1 0 1 4 4 0 0 0 0 1 0 0 0 26 35 8 13 6 14 2 0 0 0 0 0 24 0 0 1 28 53 41
44 30 47 40 8 0 0 0 0 0 0 10 4 0 0 4 0 4 8 0 0 0 0 0 0 0 0 0 25 56 25 24 1 11 0 0 1 0 0 0 0 0 3 9 3 3 4
42 35 34 42 7 2 0 0 0 0 0 18 7 12 14 9 0 3 0 0 0 0 0 0 0 0 0 0 62 40 44 22 7 1 0 0 0 0 0 0 9 0 24 0 4 9 10
61 57 45 26 8 14 0 0 0 0 0 25 10 12 19 18 11 2 0 0 0 11 5 3 0 0 0 9 30 4 30 41 14 11 7 10 27 24 31 0 0 15 0 0 4 14 12
53 49 40 36 39 18 0 0 0 0 0 24 71 25 17 19 38 0 0 17 11 9 15 10 0 0 0 56 141 26 7 3 0 19 33 34 99 106 72 7 21 4 0 0 0 9 11
57 53 51 38 43 26 6 3 0 0 0 23 33 24 22 22 20 8 13 6 7 7 16 15 0 0 0 66 112 10 27 28 26 19 12 47 42 80 69 27 7 3 0 0 11 12 22
60 56 56 57 51 34 21 7 4 5 10 36 43 19 24 33 13 17 13 9 18 21 19 5 10 7 9 16 3 6 4 0 29 17 20 0 13 5 4 9 2 2 0 1 14 24 22
53 47 62 64 51 56 30 14 4 1 0 7 56 43 22 13 9 0 0 0 1 8 27 11 10 34 34 29 13 7 17 87 5 35 0 5 9 3 4 11 10 4 11 8 5 9 8

GFSGBSN_con_sbcape_111.txt.gz
CAPE
32 27 15 5 1 0 0 0 0 0 0 0 0 0 0 1 1 0 0 0 0 0 0 0 0 1 0 0 0 0 0 0 0 0 0 0 0 0 0 0 0 0 0 0 0 0 0
31 29 14 2 1 1 2 0 0 0 0 0 0 0 0 0 0 0 0 0 0 0 0 0 0 4 0 0 0 0 0 0 0 0 0 0 0 0 0 0 0 0 0 0 0 0 0
32 28 20 12 0 0 4 0 0 0 0 0 0 0 0 0 0 0 0 0 0 0 0 0 0 0 2 0 0 0 0 0 0 0 0 0 0 0 0 0 0 0 0 0 0 0 0
37 14 11 18 5 2 0 0 0 0 0 0 0 0 0 0 0 0 0 0 0 0 0 0 0 0 0 0 0 0 0 0 0 0 0 0 0 0 0 0 0 0 0 0 0 0 0
31 11 13 14 6 0 0 0 0 0 0 0 0 0 0 0 0 0 0 0 0 0 0 0 0 0 0 0 0 0 0 0 0 0 0 0 0 0 0 0 0 0 0 0 0 0 0
36 16 23 15 0 0 0 0 0 0 0 0 0 0 0 0 0 0 0 0 0 0 0 0 0 0 0 0 0 0 0 0 0 0 0 0 0 0 0 0 0 0 0 0 0 0 0
38 63 30 5 0 0 1 2 0 0 0 0 0 0 0 0 0 0 0 0 0 0 0 0 0 0 0 0 0 0 0 0 0 0 0 0 7 0 0 0 0 0 0 0 0 0 0
66 55 26 3 0 2 6 3 0 0 0 0 0 0 0 0 0 0 0 0 0 0 0 0 0 0 0 0 0 0 0 0 0 0 0 0 0 0 0 0 0 0 0 0 0 0 1
84 30 12 6 6 2 4 1 0 0 0 0 0 0 0 0 0 0 0 0 0 0 0 0 0 0 0 0 0 0 0 2 0 0 0 0 0 4 10 0 0 0 0 0 0 0 1
47 35 17 11 11 6 5 3 0 0 0 0 0 0 0 0 0 0 0 0 0 0 0 0 0 4 0 0 0 0 7 9 0 1 10 0 0 0 13 1 0 0 0 0 0 0 39
47 64 45 17 14 10 12 1 0 0 0 0 0 0 0 0 0 0 0 0 0 0 0 0 0 0 0 0 0 0 0 2 14 0 38 0 0 0 4 53 0 0 0 0 16 19 0
40 36 38 21 15 24 7 1 1 0 0 0 0 0 0 0 0 0 0 0 0 0 0 0 0 0 0 0 0 0 0 10 12 0 0 0 0 0 26 18 8 1 14 101 1 0 0
61 46 29 18 27 17 4 4 0 0 0 0 0 0 0 0 0 0 0 0 0 0 0 0 0 0 0 0 0 0 0 0 0 2 0 0 0 0 45 1 12 3 105 10 0 0 0
48 44 32 32 22 11 6 3 0 0 0 0 0 0 0 0 0 0 0 0 0 0 0 0 0 0 0 0 0 0 0 0 0 0 0 0 0 0 3 0 25 0 3 2 2 0 0
63 23 31 24 22 18 7 2 0 0 0 0 0 0 0 0 0 0 0 0 0 0 0 0 0 0 0 0 4 1 0 0 1 0 0 10 0 39 21 41 23 0 0 13 7 4 0
32 22 34 26 13 12 5 0 0 0 0 0 0 0 0 0 0 0 0 0 0 0 0 0 0 0 0 1 2 2 0 3 9 17 0 14 0 6 15 162 146 3 0 10 10 25 32
39 30 12 32 17 7 2 0 0 0 0 0 0 0 0 0 0 0 0 0 0 0 1 16 6 7 4 5 4 3 0 0 17 84 69 60 0 13 99 65 2 21 28 47 50 26 10
28 37 8 31 8 7 2 0 0 0 0 0 0 0 0 0 0 0 1 0 0 0 0 0 4 4 5 4 2 2 2 1 0 38 37 5 0 7 8 4 33 5 43 8 43 6 3
47 8 12 26 15 11 3 0 0 0 0 0 0 0 0 0 0 0 0 0 6 0 0 0 14 17 0 0 0 0 1 0 2 21 17 1 5 4 1 2 5 1 0 11 29 5 8
34 11 27 16 14 8 0 0 0 0 0 0 0 0 0 0 0 0 0 0 1 0 0 0 8 0 0 0 0 1 2 0 2 9 66 48 21 27 23 18 12 13 12 5 7 3 4
42 17 9 27 28 10 0 0 0 0 0 0 0 0 0 0 3 0 0 0 0 0 0 0 0 0 0 0 0 0 1 0 0 1 0 0 6 2 3 0 6 4 2 2 1 0 11
16 15 22 34 34 9 0 0 0 0 0 0 0 1 0 0 0 0 0 0 0 0 0 0 0 0 0 0 0 0 1 0 0 0 0 0 19 0 1 0 0 2 0 0 4 28 48
25 26 49 36 26 1 0 0 0 0 0 0 0 0 0 0 0 0 0 0 0 0 0 0 0 0 0 0 0 0 0 1 4 12 0 0 0 0 1 0 0 6 3 5 10 17 10
45 29 24 38 14 0 0 0 0 0 0 0 0 0 0 0 0 0 0 0 0 0 0 2 0 0 0 0 0 3 1 5 9 10 0 0 3 0 0 0 3 12 0 0 9 16 12
42 21 9 40 10 1 0 0 0 0 0 0 0 0 0 0 0 0 0 0 0 1 0 8 0 0 0 0 4 0 2 0 4 14 13 1 0 0 0 2 4 0 0 3 9 14 10
50 38 34 58 41 33 12 0 0 0 0 0 0 0 0 0 0 2 0 0 0 0 0 0 0 0 0 0 10 0 1 0 1 4 6 24 0 1 0 4 0 0 0 0 0 5 15
51 43 60 66 53 42 19 5 0 0 0 0 0 0 0 0 2 0 0 0 0 0 0 0 0 0 0 0 0 0 0 0 3 2 0 0 0 0 0 2 0 2 0 0 0 8 37
54 55 60 51 63 47 40 12 6 0 0 0 0 0 8 3 0 0 0 0 0 0 0 0 0 0 0 0 0 0 0 5 22 6 5 0 1 1 0 0 0 3 0 1 25 24 27
53 60 57 50 54 47 42 30 16 0 0 0 10 6 0 0 0 0 0 0 0 0 0 0 0 11 0 0 0 1 1 0 0 0 0 0 0 0 3 5 10 8 19 8 5 9 2

GFSGBSN_con_sbcape_114.txt.gz
CAPE
12 20 18 23 17 0 0 0 0 0 0 0 0 0 0 0 0 0 0 0 0 0 0 0 0 1 0 0 0 0 0 0 0 0 0 0 0 0 0 0 0 0 0 0 0 0 0
7 15 24 17 4 0 0 0 0 0 0 0 0 0 0 0 0 0 0 0 0 0 0 0 0 3 0 0 0 0 0 0 0 0 0 0 0 0 0 0 0 0 0 0 0 0 0
11 20 23 3 0 3 1 0 0 0 0 0 0 0 0 0 0 0 0 0 0 0 0 0 0 5 0 0 0 0 0 0 0 0 0 0 0 0 0 0 0 0 0 0 0 0 0
19 30 19 0 0 5 10 0 0 0 0 0 0 0 0 0 0 0 0 0 0 0 0 0 0 2 0 0 0 0 0 0 0 0 0 0 0 0 0 0 0 0 0 0 0 0 0
22 39 25 5 1 11 3 0 0 0 0 0 0 0 0 0 0 0 0 0 0 0 0 0 0 0 0 0 0 0 0 0 0 0 0 0 0 0 0 0 0 0 0 0 0 0 0
34 39 38 15 16 5 0 0 0 0 0 0 0 0 0 0 0 0 0 0 0 0 0 0 0 0 0 0 0 0 0 0 0 0 0 0 0 0 0 0 0 0 0 0 0 0 0
39 43 55 41 12 2 1 0 0 0 0 0 0 0 0 0 0 0 0 0 0 0 0 0 0 0 0 0 0 0 0 0 0 0 0 0 0 0 0 0 0 0 0 0 0 0 0
27 42 64 51 16 6 2 5 0 0 0 0 0 0 0 0 0 0 0 0 0 0 0 0 0 0 0 0 0 0 0 0 0 0 0 0 0 0 0 1 0 0 0 0 0 0 0
21 34 76 68 29 12 8 3 0 0 0 0 0 0 0 0 0 0 0 0 0 0 0 0 0 0 0 0 0 0 0 0 0 0 0 0 0 0 0 0 0 0 0 0 0 0 0
21 48 100 47 34 17 4 1 0 0 0 0 0 0 0 0 0 0 0 0 0 0 0 0 0 0 0 0 0 0 0 0 0 0 0 0 0 7 0 0 0 19 0 0 0 0 0
45 56 64 39 20 8 4 0 1 0 0 0 0 0 0 0 0 0 0 0 0 0 0 0 0 0 0 0 0 0 0 0 0 0 0 0 0 10 0 0 0 0 2 0 0 0 78
40 50 26 49 39 5 5 1 0 0 0 0 0 0 0 0 0 0 0 0 0 0 0 0 0 0 0 0 0 0 0 0 0 0 0 0 0 0 0 0 0 14 20 58 60 81 19
33 37 31 59 46 29 7 5 4 1 0 0 0 0 0 0 0 0 0 0 0 0 0 0 0 0 0 0 0 0 0 0 0 0 0 0 0 0 0 0 0 6 20 2 20 28 0
41 55 57 42 31 35 21 18 7 0 0 0 0 0 0 0 0 0 0 0 0 0 0 0 0 0 0 0 0 0 0 0 0 0 0 0 0 0 0 0 0 12 0 0 1 0 0
48 36 25 23 60 30 28 19 2 0 0 0 0 0 0 0 0 0 0 0 0 0 0 0 0 0 0 0 6 5 0 0 0 0 0 0 0 0 3 91 87 23 0 4 24 23 2
34 19 37 57 36 34 32 12 7 0 0 0 0 0 0 0 0 0 0 0 0 0 0 0 0 0 2 0 0 0 1 0 5 1 0 10 0 0 0 72 114 19 29 23 4 13 22
29 21 54 37 32 22 18 10 0 0 0 0 0 0 0 0 0 0 0 0 0 0 0 0 0 2 0 4 1 1 0 0 1 1 0 30 10 0 0 88 34 4 30 48 9 15 20
15 37 41 32 27 12 11 14 0 0 0 0 0 0 0 0 0 0 0 0 0 0 0 0 0 1 0 0 0 0 2 13 0 4 6 5 1 0 47 5 80 1 52 31 0 47 49
36 15 36 16 11 13 20 4 0 0 0 0 0 0 0 0 0 0 0 0 0 0 0 0 0 10 0 0 0 0 0 0 0 0 6 13 29 31 11 0 3 1 14 49 18 2 17
43 13 21 19 28 15 10 1 1 0 0 0 0 0 0 0 0 0 0 0 0 0 0 0 0 0 0 0 0 0 0 0 0 0 29 27 3 4 0 7 7 9 8 15 30 14 2
28 25 41 26 18 3 3 0 0 0 0 0 0 0 0 0 0 0 0 0 0 0 0 0 0 0 0 0 0 0 0 0 0 0 0 0 0 6 8 10 5 3 16 8 5 1 2
32 20 42 41 22 1 2 1 0 0 0 0 0 0 0 0 0 0 0 0 0 0 0 0 0 0 0 0 0 0 0 0 0 0 0 0 0 0 0 7 9 8 7 3 23 17 9
18 13 33 29 18 8 0 0 0 0 0 0 0 0 0 0 0 0 0 0 0 0 0 0 0 0 0 0 0 0 0 0 0 0 0 0 0 0 2 5 0 0 12 10 8 6 9
48 18 19 15 18 1 0 0 0 0 0 0 0 0 0 0 0 0 0 0 0 0 0 0 0 0 0 0 0 0 0 0 0 0 0 0 0 0 1 0 0 8 14 5 7 22 5
57 42 13 34 10 0 0 0 0 0 0 0 0 0 0 0 0 0 0 0 0 0 0 0 0 0 0 0 0 0 0 0 0 0 0 0 0 0 1 1 6 0 0 4 13 11 35
48 35 17 50 21 14 13 0 0 0 0 0 0 0 0 0 0 0 0 0 0 0 0 0 0 0 0 0 0 0 0 0 3 1 0 0 0 0 0 0 0 1 1 0 0 6 37
63 60 64 56 24 17 11 1 0 0 0 0 0 0 0 0 0 0 0 0 0 0 0 0 0 0 0 0 0 0 0 2 8 1 1 0 0 0 1 0 1 2 0 0 0 7 33
59 60 73 61 47 20 24 6 10 0 0 0 0 0 0 0 0 0 0 0 0 0 0 0 0 0 0 0 0 0 0 4 1 3 2 3 1 0 0 0 0 1 0 6 16 16 10
55 53 48 48 48 33 41 23 17 0 0 0 0 0 0 0 0 0 0 0 0 0 0 0 0 1 0 0 0 0 0 0 0 0 0 0 0 0 5 2 8 7 22 12 0 0 0

GFSGBSN_con_sbcape_117.txt.gz
CAPE
9 14 8 7 10 15 13 2 0 0 0 0 0 0 0 0 0 0 0 0 0 0 0 0 0 1 0 0 0 0 0 0 0 0 0 0 0 0 0 0 0 0 0 0 0 0 0
5 7 7 8 10 19 8 1 0 0 0 0 0 0 0 0 0 0 0 0 0 0 0 1 2 1 0 0 0 0 0 0 0 0 0 0 0 0 0 0 0 0 0 0 0 0 0
12 5 7 7 11 15 8 2 0 0 0 0 0 0 0 0 0 0 0 0 0 0 0 0 0 0 0 0 0 0 0 0 0 0 0 0 0 0 0 0 0 0 0 0 0 0 0
9 10 6 7 9 3 0 0 0 0 0 0 0 0 0 0 0 0 0 0 0 0 0 2 0 0 0 0 0 0 0 0 0 0 0 0 0 0 0 0 0 0 0 0 0 0 0
7 9 13 13 7 1 0 3 0 0 0 0 0 0 0 0 0 0 0 0 0 0 0 0 0 0 0 0 0 0 0 0 0 0 0 0 0 0 0 0 0 0 0 0 0 0 0
6 8 14 21 15 3 1 4 0 0 0 0 0 0 0 0 0 0 0 0 0 0 0 0 0 0 0 0 0 0 0 0 0 0 0 0 0 0 0 0 0 0 0 0 0 0 0
23 5 13 21 14 13 10 3 0 0 0 0 0 0 0 0 0 0 0 0 0 0 0 0 0 0 0 0 0 0 0 0 0 0 0 0 0 0 0 0 0 0 0 0 0 0 0
6 3 16 17 21 19 24 16 2 1 0 0 0 0 0 0 0 0 0 0 0 0 0 0 0 0 0 0 0 0 0 0 0 0 0 0 0 0 0 0 0 0 0 0 0 0 0
0 3 13 21 30 28 23 11 9 1 0 0 0 0 0 0 0 0 0 0 0 0 0 0 0 0 0 0 0 0 0 0 0 0 0 0 0 0 0 0 0 0 0 0 0 0 0
1 1 10 24 33 33 30 30 6 0 0 0 0 0 0 0 0 0 0 0 0 0 0 0 0 0 0 0 0 0 0 0 0 0 0 0 0 0 0 0 0 0 0 0 7 11 0
0 0 7 22 30 17 52 29 15 6 0 0 0 0 0 0 0 0 0 0 0 0 0 0 0 0 0 0 0 0 0 0 0 0 0 0 0 0 0 0 0 0 0 1 0 1 0
1 6 12 25 23 38 46 14 11 0 0 0 0 0 0 0 0 0 0 0 0 0 0 0 0 0 0 0 0 0 0 0 0 0 0 0 0 0 0 0 0 0 30 54 15 5 0
5 18 29 33 31 41 37 11 3 6 0 0 0 0 0 0 0 0 0 0 0 0 0 0 0 0 0 0 0 0 0 0 0 0 0 0 0 0 0 0 0 0 11 1 1 1 0
23 27 27 38 40 46 23 3 2 0 0 0 0 0 0 0 0 0 0 0 0 0 0 0 0 0 0 0 0 0 0 0 0 0 3 0 0 0 0 0 0 0 0 13 1 16 9
51 35 44 41 37 36 14 4 0 0 0 0 0 0 0 0 0 0 0 0 0 0 0 0 0 0 0 0 0 0 0 0 5 9 1 0 0 0 5 15 2 1 0 0 0 9 7
54 47 49 57 43 16 6 1 9 6 2 0 0 0 0 0 0 0 0 0 0 0 0 0 0 0 0 0 0 0 0 0 17 7 7 0 6 0 0 0 16 31 9 10 1 18 2
41 33 58 58 24 9 18 16 13 11 0 0 0 0 0 0 0 0 0 0 0 0 0 0 0 0 0 0 1 1 0 0 2 2 0 5 10 0 0 0 4 7 0 0 3 34 11
46 64 47 29 7 31 27 21 20 4 0 0 0 0 0 0 0 0 0 0 0 0 0 0 0 0 0 0 1 1 0 2 0 0 4 13 3 0 0 0 41 10 0 0 0 3 63
52 29 11 24 32 25 29 25 16 1 0 0 0 0 0 0 0 0 0 0 0 0 0 0 0 0 0 0 0 0 0 0 0 0 1 4 12 1 0 10 12 2 29 3 1 2 5
66 40 31 24 19 18 33 21 18 0 0 0 0 0 0 0 0 0 0 0 0 0 0 0 0 0 0 0 0 0 0 0 0 0 3 6 8 7 1 13 23 32 9 0 0 0 2
44 40 48 38 24 36 22 11 0 0 0 0 0 0 0 0 0 0 0 0 0 0 0 0 0 0 0 0 0 0 0 0 0 0 0 1 3 4 3 16 2 7 39 8 1 5 1
61 41 42 43 17 12 8 3 0 0 0 0 0 0 0 0 0 0 0 0 0 0 0 0 0 0 0 0 0 0 0 0 0 0 0 0 2 0 0 0 1 0 2 5 4 1 4
16 17 42 29 6 11 8 0 0 0 0 0 0 0 0 0 0 0 0 0 0 0 0 0 0 0 0 0 0 0 0 0 0 0 0 0 0 0 12 2 12 0 5 5 4 6 11
53 28 31 15 16 7 0 0 0 0 0 0 0 0 0 0 0 0 0 0 0 0 0 0 0 0 0 0 0 0 0 0 0 0 0 0 0 0 0 9 0 5 3 12 7 10 9
49 22 3 24 22 0 0 0 0 0 0 0 0 0 0 0 0 0 0 0 0 0 0 0 0 0 0 0 0 0 0 0 0 0 0 0 0 1 0 0 7 1 0 4 9 14 13
64 38 19 45 30 14 1 0 0 0 0 0 0 0 0 0 0 0 0 0 0 0 0 0 0 0 0 0 0 0 0 0 0 0 0 0 0 0 3 0 0 3 2 3 0 3 13
71 62 62 60 35 32 2 0 0 0 0 0 0 0 0 0 0 0 0 0 0 0 0 0 0 0 0 0 0 0 0 1 0 0 1 0 0 0 0 0 1 3 3 7 2 2 25
50 68 66 46 32 16 7 8 0 0 0 0 0 0 0 0 0 0 0 0 0 0 0 0 0 0 0 0 0 0 0 0 3 1 5 1 2 3 0 0 0 3 0 1 9 3 9
59 65 54 40 49 43 26 23 3 0 0 0 0 0 0 0 0 0 0 0 0 0 0 0 0 0 0 0 0 0 0 0 0 0 0 0 0 1 4 3 6 4 8 4 0 0 0

GFSGBSN_con_sbcape_120.txt.gz
CAPE
7 8 6 2 4 0 11 8 9 2 0 0 0 0 0 0 0 0 0 0 0 0 0 0 0 0 0 0 0 0 0 0 0 0 0 0 0 0 0 0 0 0 0 0 0 0 0
3 4 7 2 4 2 5 12 19 1 0 0 0 0 0 0 0 0 0 0 0 0 0 0 1 0 0 0 0 0 0 0 0 0 0 0 0 0 0 0 0 0 0 0 0 0 0
18 2 4 2 2 4 3 6 10 1 0 0 0 0 0 0 0 0 0 0 0 0 1 1 0 0 0 0 0 0 0 0 0 0 0 0 0 0 0 0 0 0 0 0 0 0 0
74 24 3 0 0 3 2 5 4 1 0 0 0 0 0 0 0 0 0 0 0 0 1 1 0 0 0 0 0 0 0 0 0 0 0 0 0 0 0 0 0 0 0 0 0 0 0
11 41 15 4 1 1 4 8 2 0 0 0 0 0 0 0 0 0 0 0 0 0 0 1 0 0 0 0 0 0 0 0 0 0 0 0 0 0 0 0 0 0 0 0 0 0 0
10 3 34 3 2 3 7 11 5 1 2 0 0 0 0 0 0 0 0 0 0 0 0 0 0 0 0 0 0 0 0 0 0 0 0 0 0 0 0 0 0 0 0 0 0 0 0
19 11 33 8 3 3 12 14 8 4 1 0 0 0 0 0 0 0 0 0 0 0 0 0 0 0 0 0 0 0 0 0 0 0 0 0 0 0 0 0 0 0 0 0 0 0 0
25 14 13 61 7 4 15 18 11 2 0 0 0 0 0 0 0 0 0 0 0 0 0 0 0 0 0 0 0 0 0 0 0 0 0 0 0 0 0 0 0 0 0 0 0 0 0
16 12 3 73 22 7 16 23 14 3 7 0 0 0 0 0 0 0 0 0 0 0 0 0 0 0 0 0 0 0 0 0 0 0 0 0 0 0 0 0 0 0 0 0 0 0 0
0 7 7 14 23 9 14 27 15 10 0 0 0 0 0 0 0 0 0 0 0 0 0 0 0 0 0 0 0 0 0 0 0 0 0 0 0 0 0 0 0 0 0 0 0 0 0
2 3 12 52 1 2 11 24 17 5 1 0 0 0 0 0 0 0 0 0 0 0 0 0 0 0 0 0 0 0 0 0 0 0 0 0 0 0 0 0 0 0 0 0 0 0 0
2 3 18 35 0 6 12 27 9 8 1 1 3 0 0 0 0 0 0 0 0 0 0 0 0 0 0 0 0 0 0 0 0 0 0 0 0 0 0 0 0 0 0 0 0 0 0
2 15 73 1 0 13 25 22 6 3 2 4 0 0 0 0 0 0 0 0 0 0 0 0 0 0 0 0 0 0 0 0 0 0 0 0 0 0 0 0 0 0 0 0 0 0 0
0 44 1 2 13 28 27 16 12 17 6 0 0 0 0 0 0 0 0 0 0 0 0 0 0 0 0 0 0 0 0 0 0 0 0 0 0 0 0 0 0 0 0 0 1 4 8
3 0 4 13 23 35 39 45 25 14 2 0 0 0 0 0 0 0 0 0 0 0 0 0 0 0 0 0 0 0 0 0 0 6 2 2 0 0 0 0 0 0 0 0 0 0 0
24 19 30 38 46 47 42 27 28 23 11 0 0 0 0 0 0 0 0 0 0 0 0 0 0 0 0 0 0 0 0 0 0 12 13 14 1 0 0 0 0 0 1 0 0 3 1
21 37 48 52 53 48 34 35 17 30 0 0 0 0 0 0 0 0 0 0 0 0 0 0 0 0 0 0 0 0 0 0 1 1 0 14 21 0 0 0 0 2 0 0 4 0 6
20 8 10 20 21 31 39 30 39 10 0 0 0 0 0 0 0 0 0 0 0 0 0 0 0 0 0 0 0 0 0 0 0 0 0 1 25 1 0 0 0 9 0 0 0 0 2
27 34 37 42 45 34 29 40 12 10 0 0 0 0 0 0 0 0 0 0 0 0 0 0 0 0 0 0 0 0 0 0 0 0 2 7 15 6 0 0 6 0 0 1 0 1 3
48 45 47 46 36 34 31 16 12 0 0 0 0 0 0 0 0 0 0 0 0 0 0 0 0 0 0 0 0 0 0 0 0 0 0 12 25 2 1 4 24 4 3 3 0 0 1
47 42 28 23 20 20 16 8 6 0 0 0 0 0 0 0 0 0 0 0 0 0 0 0 0 0 0 0 0 0 0 0 0 0 0 1 3 4 2 5 7 8 9 0 0 3 0
48 31 15 27 27 22 17 8 0 0 0 0 0 0 0 0 0 0 0 0 0 0 0 0 0 0 0 0 0 0 0 0 0 0 0 0 0 1 0 35 1 0 0 1 4 2 3
26 24 27 19 29 18 11 1 0 0 0 0 0 0 0 0 0 0 0 0 0 0 0 0 0 0 0 0 0 0 0 0 0 0 0 0 0 0 0 0 1 0 4 1 3 1 1
38 20 7 1 12 14 5 0 0 0 0 0 0 0 0 0 0 0 0 0 0 0 0 0 0 0 0 0 0 0 0 0 0 0 0 0 6 0 2 1 0 0 11 8 2 6 3
40 25 5 11 10 5 0 0 0 0 0 0 0 0 0 0 0 0 0 0 0 0 0 0 0 0 0 0 0 0 0 0 0 0 0 0 2 5 0 0 1 1 0 4 9 6 5
31 40 14 25 11 0 0 0 0 0 0 0 0 0 0 0 0 0 0 0 0 0 0 0 0 0 0 0 0 0 0 0 0 0 0 0 0 3 0 0 0 0 0 0 3 2 2
40 43 44 22 15 0 0 0 0 0 0 0 0 0 0 0 0 0 0 0 0 0 0 0 0 0 0 0 0 0 0 0 0 0 0 0 0 2 1 0 2 1 3 0 3 1 1
37 35 53 25 12 0 0 0 0 0 0 0 0 0 0 0 0 0 0 0 0 0 0 0 0 0 0 0 0 0 0 0 1 0 1 0 3 1 2 0 0 2 0 0 5 2 1
44 28 57 35 27 0 0 0 0 0 0 0 0 0 0 0 0 0 0 0 0 0 0 0 0 0 0 0 0 0 0 0 0 0 0 0 0 0 2 0 3 0 3 0 0 0 0

GFSGBSN_con_sbcape_123.txt.gz
CAPE
6 4 2 0 2 0 0 0 0 0 0 0 0 0 0 0 0 0 0 0 0 0 0 0 0 0 0 0 0 0 0 0 0 0 0 0 0 0 0 0 0 0 0 0 0 0 0
6 8 1 0 0 4 1 0 0 0 0 0 0 0 0 0 0 0 0 0 0 0 0 0 0 0 0 0 0 0 0 0 0 0 0 0 0 0 0 0 0 0 0 0 0 0 0
1 2 26 1 6 1 1 0 0 1 2 0 0 0 0 0 0 0 0 0 0 0 0 0 0 0 0 0 0 0 0 0 0 0 0 0 0 0 0 0 0 0 0 0 0 0 0
6 3 1 18 3 0 0 0 0 5 2 0 0 0 0 0 0 0 0 0 0 0 0 1 0 0 0 0 0 0 0 0 0 0 0 0 0 0 0 0 0 0 0 0 0 0 0
3 3 8 3 11 3 0 0 1 8 4 0 0 0 0 0 0 0 0 0 0 0 0 1 0 0 0 0 0 0 0 0 0 0 0 0 0 0 0 0 0 0 0 0 0 0 0
10 6 10 7 5 10 0 0 0 4 5 0 0 0 0 0 0 0 0 0 0 0 0 0 0 0 0 0 0 0 0 0 0 0 0 0 0 0 0 0 0 0 0 0 0 0 0
28 13 4 5 7 12 29 2 0 1 3 2 0 0 0 0 0 0 0 0 0 0 0 0 0 0 0 0 0 0 0 0 0 0 0 0 0 0 0 0 0 0 0 0 0 0 0
37 23 16 12 13 19 33 55 0 2 5 4 0 0 0 0 0 0 0 0 0 0 0 0 0 0 0 0 0 0 0 0 0 0 0 0 0 0 0 0 0 0 0 0 0 0 0
49 22 8 12 20 18 21 54 1 4 7 7 0 0 0 0 0 0 0 0 0 0 0 0 0 0 0 0 0 0 0 0 0 0 0 0 0 0 0 0 0 0 0 0 0 0 0
23 7 12 15 24 22 13 39 4 4 6 1 0 0 0 0 0 0 0 0 0 0 0 0 0 0 0 0 0 0 0 0 0 0 0 0 0 0 0 0 0 0 0 0 0 0 0
9 15 5 3 10 11 12 51 3 5 12 3 0 0 0 0 0 0 0 0 0 0 0 0 0 0 0 0 0 0 0 0 0 0 0 0 0 0 0 0 0 0 0 0 0 0 0
4 2 1 4 0 6 19 45 0 13 9 0 0 0 0 0 0 0 0 0 0 0 0 0 0 0 0 0 0 0 0 0 0 0 0 0 0 0 0 0 0 0 0 0 0 0 5
0 3 4 7 0 1 44 2 8 17 4 3 1 0 0 0 0 0 0 0 0 0 0 0 0 0 0 0 0 0 0 0 0 0 0 0 0 0 0 0 0 0 0 0 0 7 0
2 2 15 0 0 2 3 5 14 9 4 14 2 10 0 0 0 0 0 0 0 0 0 0 0 0 0 0 0 0 0 0 0 0 1 0 0 0 0 0 0 0 0 0 0 0 0
5 3 0 0 3 20 2 13 15 12 18 26 23 0 0 0 0 0 0 0 0 0 0 0 0 0 0 0 0 0 0 0 0 6 2 5 1 0 0 0 0 0 0 0 0 0 1
47 1 1 2 0 6 15 23 28 27 49 25 0 1 0 0 0 0 0 0 0 0 0 0 0 0 0 0 0 0 0 0 0 6 2 7 28 0 0 0 0 0 0 5 1 2 30
1 43 10 7 12 18 34 52 43 44 22 11 7 19 0 0 0 0 0 0 0 0 0 0 0 0 0 0 0 0 0 0 0 0 0 1 30 0 0 0 1 4 5 2 16 19 37
1 0 4 30 38 41 56 61 56 43 47 14 14 15 0 0 0 0 0 0 0 0 0 0 0 0 0 0 0 0 0 0 0 0 0 2 17 9 1 0 0 12 7 9 20 5 11
17 11 5 1 0 7 45 51 36 27 25 0 0 1 0 0 0 0 0 0 0 0 0 0 0 0 0 0 0 0 0 0 0 0 0 7 4 3 0 0 0 13 13 34 1 0 2
15 28 22 31 40 34 32 31 31 44 2 0 0 0 0 0 0 0 0 0 0 0 0 0 0 0 0 0 0 0 0 0 0 0 0 14 5 0 4 13 17 8 4 6 17 0 1
32 29 37 42 43 42 39 45 55 33 2 0 0 0 0 0 0 0 0 0 0 0 0 0 0 0 0 0 0 0 0 0 0 0 0 5 16 12 3 3 6 6 5 1 0 4 2
20 19 48 51 39 40 48 71 47 11 0 0 0 0 0 0 0 0 0 0 0 0 0 0 0 0 0 0 0 0 0 0 0 0 0 2 4 5 0 8 0 1 4 4 4 2 5
35 19 51 75 74 57 46 16 3 0 0 0 0 0 0 0 0 0 0 0 0 0 0 0 0 0 0 0 0 0 0 0 0 0 0 0 13 5 2 10 9 0 4 5 3 2 5
41 41 59 50 30 23 9 0 0 0 0 0 0 0 0 0 0 0 0 0 0 0 0 0 0 0 0 0 0 0 0 0 0 0 0 0 3 6 2 6 0 7 18 5 4 11 2
26 39 18 29 14 7 3 0 0 0 0 0 0 0 0 0 0 0 0 0 0 0 0 0 0 0 0 0 0 0 0 0 0 0 0 0 1 7 2 1 4 6 1 3 8 6 4
32 38 16 15 4 6 0 0 0 0 0 0 0 0 0 0 0 0 0 0 0 0 0 0 0 0 0 0 0 0 0 0 0 0 0 0 0 12 0 0 0 1 0 1 3 2 1
44 44 30 3 0 0 0 0 0 0 0 0 0 0 0 0 0 0 0 0 0 0 0 0 0 0 0 0 0 0 0 0 0 0 0 0 0 2 5 0 1 1 1 2 4 2 0
29 59 33 24 3 0 0 0 0 0 0 0 0 0 0 0 0 0 0 0 0 0 0 0 0 0 0 0 0 0 0 1 1 0 3 0 1 0 4 1 0 0 4 1 6 4 0
31 44 32 35 16 0 0 0 0 0 0 0 0 0 0 0 0 0 0 0 0 0 0 0 0 0 0 0 0 0 1 1 0 0 0 0 0 0 1 1 3 2 1 0 0 2 4

GFSGBSN_con_sbcape_126.txt.gz
CAPE
0 2 6 0 0 0 0 0 0 0 0 0 0 0 0 0 0 0 0 0 0 0 0 0 0 0 0 0 0 0 0 0 0 0 0 0 0 0 0 0 0 0 0 0 0 0 0
5 1 0 7 0 0 0 1 0 0 0 0 0 0 0 0 0 0 0 0 0 0 0 0 0 0 0 0 0 0 0 0 0 0 0 0 0 0 0 0 0 0 0 0 0 0 0
7 7 6 0 2 6 0 0 0 0 0 0 0 0 0 0 0 0 0 0 0 0 0 0 0 0 0 0 0 0 0 0 0 0 0 0 0 0 0 0 0 0 0 0 0 0 0
7 7 1 1 0 1 1 0 0 0 0 0 0 0 0 0 0 0 0 0 0 0 0 0 0 0 0 0 0 0 0 0 0 0 0 0 0 0 0 0 0 0 0 0 0 0 0
31 9 6 6 0 0 1 3 0 0 1 0 0 0 0 0 0 0 0 0 0 0 0 0 0 0 0 0 0 0 0 0 0 0 0 0 0 0 0 0 0 0 0 0 0 0 0
44 34 15 19 9 1 0 3 12 0 0 1 2 0 0 0 0 0 0 0 0 0 0 0 0 0 0 0 0 0 0 0 0 0 0 0 0 0 0 0 0 0 0 0 0 0 0
29 65 45 30 13 1 2 4 7 30 1 2 2 0 0 0 0 0 0 0 0 0 0 0 0 0 0 0 0 0 0 0 0 0 0 0 0 0 0 0 0 0 0 0 0 0 0
30 37 47 46 33 20 3 10 6 15 0 1 4 0 0 0 0 0 0 0 0 0 0 0 0 0 0 0 0 0 0 0 0 0 0 0 0 0 0 0 0 0 0 0 0 0 0
42 43 55 62 58 41 13 9 13 20 7 3 5 0 0 0 0 0 0 0 0 0 0 0 0 0 0 0 0 0 0 0 0 0 0 0 0 0 0 0 0 0 0 0 0 0 0
49 22 12 20 12 3 0 3 11 10 10 4 1 0 0 0 0 0 0 0 0 0 0 0 0 0 0 0 0 0 0 0 0 0 0 0 0 0 0 0 0 0 0 0 0 0 0
54 27 8 10 9 12 12 13 17 23 34 2 0 0 0 0 0 0 0 0 0 0 0 0 0 0 0 0 0 0 0 0 0 0 0 0 0 0 0 0 0 0 0 0 0 0 0
50 42 10 5 7 10 11 16 13 18 47 1 0 0 0 0 0 0 0 0 0 0 0 0 0 0 0 0 0 0 0 0 0 0 0 0 0 0 0 0 0 0 0 0 0 3 0
38 35 14 6 2 0 2 7 12 12 12 4 4 0 0 0 0 0 0 1 1 0 0 0 0 0 0 0 0 0 0 0 0 0 0 0 0 0 0 0 0 0 1 1 2 55 23
44 31 6 2 4 2 0 3 3 16 3 8 1 3 0 0 0 0 0 0 0 0 0 0 0 0 0 0 0 0 0 0 0 0 0 0 1 0 0 0 0 0 0 2 1 1 16
27 28 2 2 0 4 0 0 5 5 14 16 4 6 1 0 0 5 1 9 0 0 0 0 0 0 0 0 0 0 0 2 8 4 0 2 0 0 0 0 0 11 8 2 5 4 19
31 3 2 1 0 3 0 1 2 18 25 7 0 9 21 0 27 72 17 0 0 0 0 0 0 0 0 0 0 0 0 1 12 6 3 9 10 0 0 0 1 5 16 34 38 16 14
24 0 1 1 0 0 0 5 21 22 16 0 7 5 35 27 89 75 55 0 0 0 0 0 0 0 0 0 0 0 0 0 1 2 2 10 25 2 2 10 9 51 41 29 30 41 48
19 0 0 12 8 8 18 22 20 24 14 0 12 5 23 71 76 60 16 0 0 0 0 0 0 0 0 0 0 0 0 2 0 0 9 8 52 15 0 6 23 26 33 27 37 55 52
22 6 0 0 13 37 30 28 29 37 1 0 7 9 29 32 36 41 0 0 0 0 0 0 0 0 0 7 10 11 0 0 0 0 11 26 23 4 4 27 0 2 7 66 58 74 106
10 25 10 2 0 6 35 61 58 42 3 0 4 37 39 33 7 16 2 0 0 0 0 0 0 0 0 0 0 0 0 0 0 0 0 10 7 1 11 8 12 10 6 10 12 240 19
22 3 25 31 26 9 2 2 9 44 15 7 11 17 14 32 30 5 4 0 0 0 0 0 0 0 0 0 0 0 0 0 0 0 10 14 15 7 5 10 8 24 13 2 2 8 9
24 31 19 26 22 42 35 42 47 47 1 2 19 20 41 61 2 17 3 0 0 0 0 0 0 0 0 0 0 0 0 0 13 6 16 3 15 41 26 21 5 8 11 31 9 4 7
5 41 27 42 35 39 24 27 44 19 0 1 0 0 5 14 11 13 0 0 0 0 0 0 0 0 0 0 0 0 0 0 0 0 2 11 5 22 57 13 19 6 8 21 13 9 6
8 42 22 56 49 55 53 51 19 2 0 0 0 0 6 2 4 0 0 0 0 0 0 0 0 0 0 0 0 0 0 0 0 0 0 4 7 4 30 30 18 12 28 6 9 11 4
30 32 66 60 58 47 2 11 2 0 0 0 0 0 0 4 0 0 0 0 0 0 0 0 0 0 0 0 1 0 9 10 4 3 8 1 4 34 46 12 11 14 8 20 20 6 5
46 50 79 62 46 17 8 8 0 0 0 0 0 0 0 0 1 0 0 0 0 0 0 0 0 0 0 0 0 3 6 8 19 11 8 2 6 18 15 18 13 5 1 0 6 9 2
48 67 66 34 14 9 2 0 0 0 0 0 0 0 0 1 0 0 0 0 0 0 0 0 0 0 0 0 14 12 11 2 17 0 5 5 6 24 16 11 2 0 1 3 11 8 1
50 62 49 3 4 4 0 0 0 0 0 0 0 0 0 1 0 0 0 0 0 0 0 0 0 0 0 0 6 1 10 8 5 1 1 0 6 11 12 10 6 1 6 10 6 8 1
49 58 35 31 3 0 0 0 0 0 0 0 0 0 0 0 0 0 0 0 0 0 0 0 0 0 0 0 0 1 10 15 9 9 1 6 4 7 4 7 8 3 8 8 6 4 1

GFSGBSN_con_sbcape_129.txt.gz
CAPE
0 0 0 0 1 0 0 0 0 0 0 0 0 0 0 0 0 0 0 0 0 0 0 0 0 0 0 0 0 0 0 0 0 0 0 0 0 0 0 0 0 0 0 0 0 0 0
0 3 5 0 0 2 0 0 0 0 0 0 0 0 0 0 0 0 0 0 0 0 0 0 0 0 0 0 0 0 0 0 0 0 0 0 0 0 0 0 0 0 0 0 0 0 0
4 9 6 4 0 0 2 0 0 0 0 0 0 0 0 0 0 0 0 0 0 0 0 0 0 0 0 0 0 0 0 0 0 0 0 0 0 0 0 0 0 0 0 0 0 0 0
17 15 12 7 2 0 0 0 1 0 0 0 0 0 0 0 0 0 0 0 0 0 0 0 0 0 0 0 0 0 0 0 0 0 0 0 0 0 0 0 0 0 0 0 0 0 0
4 34 36 18 8 3 0 0 0 1 0 0 0 0 0 0 0 0 0 0 0 0 0 0 0 0 0 0 0 0 0 0 0 0 0 0 0 0 0 0 0 0 0 0 0 0 0
7 20 41 42 24 17 2 0 0 0 0 5 0 0 0 0 0 0 0 0 0 0 0 0 0 0 0 0 0 0 0 0 0 0 0 0 0 0 0 0 0 0 0 0 0 0 0
14 14 20 47 54 39 26 5 0 0 2 14 1 0 0 0 0 0 0 0 0 0 0 0 0 0 0 0 0 0 0 0 0 0 0 0 0 0 0 0 0 0 0 0 0 0 0
20 18 17 15 28 38 39 34 10 0 0 5 19 4 0 0 0 0 0 0 0 0 0 0 0 0 0 0 0 0 0 0 0 0 0 0 0 0 0 0 0 0 0 0 0 0 0
35 26 20 12 21 22 16 28 29 10 1 3 13 0 4 0 0 0 0 0 0 0 0 0 0 0 0 0 0 0 0 0 0 0 0 0 0 0 0 0 0 0 0 0 0 0 0
35 29 41 31 13 16 10 1 3 2 0 0 3 1 3 7 1 0 0 0 0 0 0 0 0 0 0 0 0 0 0 0 0 0 0 0 0 0 0 0 0 0 0 0 0 0 0
31 27 27 37 40 11 7 9 7 3 6 7 17 3 3 0 0 0 0 0 0 0 1 0 0 0 0 0 0 0 0 0 0 0 0 0 0 0 0 0 0 0 0 0 0 0 0
28 41 34 24 22 23 16 4 2 5 6 14 21 7 0 0 0 0 0 0 0 2 1 0 0 0 0 0 0 0 0 0 0 0 0 0 0 0 0 0 0 0 0 0 0 0 2
17 27 32 36 31 13 8 4 5 5 12 20 17 8 0 0 0 0 0 0 0 4 0 0 0 0 0 0 0 0 0 0 0 0 0 0 0 0 0 0 0 0 5 17 7 61 46
28 28 39 40 25 7 5 4 0 0 7 22 5 6 0 0 0 0 15 0 0 1 0 0 0 0 0 0 0 0 0 0 0 0 1 0 0 0 0 0 0 1 6 14 0 15 36
8 27 34 30 9 2 0 0 0 0 4 24 1 1 0 0 0 0 19 2 0 5 0 0 0 0 0 0 0 0 0 0 1 0 0 0 0 0 0 0 0 9 6 14 3 1 35
19 29 26 14 1 0 1 1 0 0 7 2 1 2 8 0 1 51 7 0 48 0 0 0 0 0 0 0 0 0 0 0 2 1 0 1 0 0 2 0 1 3 12 27 21 17 74
11 25 15 2 0 1 1 1 0 3 4 2 0 0 17 37 25 38 1 4 0 0 0 0 0 0 0 0 0 0 0 2 13 3 1 3 0 12 6 16 24 32 21 19 40 50 101
4 26 15 0 4 0 0 0 2 9 11 0 0 2 13 5 13 20 21 10 0 0 0 0 0 0 4 1 0 22 6 2 10 13 7 8 24 2 20 11 16 13 16 30 71 85 141
4 14 21 2 7 1 12 6 17 14 3 0 3 6 26 35 17 28 15 2 0 0 0 0 0 0 6 40 3 3 12 14 4 5 18 18 24 32 29 35 6 1 4 0 0 215 184
0 15 15 2 7 20 41 44 31 0 0 0 8 9 17 7 14 11 12 2 1 0 0 0 0 0 0 1 0 8 6 0 0 11 0 3 14 4 38 2 0 1 6 8 14 57 190
0 1 24 3 6 19 27 21 9 4 0 0 10 9 14 41 37 14 0 0 0 3 0 0 0 0 0 0 0 0 1 0 0 2 3 17 16 14 2 0 4 8 14 10 4 5 17
1 0 11 30 9 7 37 28 38 13 0 12 2 20 9 29 23 10 7 6 0 1 0 0 0 0 0 0 0 0 0 12 23 28 26 25 23 15 30 9 1 4 14 16 7 4 4
12 8 3 13 44 32 19 14 26 7 2 22 19 24 8 33 26 19 20 4 2 0 0 0 0 0 0 0 0 0 3 7 19 23 28 13 41 17 48 14 17 13 3 8 6 10 4
28 14 16 11 6 40 28 15 9 3 0 23 23 31 26 39 21 15 3 15 14 0 0 0 0 0 0 0 0 0 0 0 0 1 5 38 28 16 72 21 21 11 7 4 6 7 4
19 10 26 23 16 25 18 6 11 1 0 3 0 9 9 50 10 3 7 12 9 2 3 0 0 0 0 0 10 26 28 14 5 24 11 16 30 46 56 54 7 16 10 3 10 3 5
18 21 29 35 36 32 20 11 9 0 0 8 1 0 84 42 7 1 18 0 0 6 1 0 0 0 0 0 12 4 13 7 31 11 12 22 14 54 52 32 31 4 5 2 2 12 2
43 59 33 25 28 22 32 17 3 0 0 8 22 31 99 84 33 21 15 2 1 0 0 0 0 0 0 0 6 6 22 16 32 30 13 21 44 35 66 55 5 4 7 1 9 6 0
51 55 45 17 20 12 12 17 0 0 0 11 18 36 61 43 1 5 0 0 0 0 0 0 0 0 0 0 1 11 22 16 23 14 6 24 41 20 26 33 22 5 9 8 3 3 0
47 54 22 31 24 6 0 0 0 0 0 0 12 0 52 11 23 0 0 0 0 0 0 0 0 0 0 0 1 18 15 16 24 26 0 9 2 22 2 11 2 1 12 2 6 2 2

GFSGBSN_con_sbcape_132.txt.gz
CAPE
0 0 0 0 0 0 1 0 0 0 0 0 0 0 0 0 0 0 0 0 0 0 0 0 0 0 0 0 0 0 0 0 0 0 0 0 0 0 0 0 0 0 0 0 0 0 0
0 0 0 0 0 0 0 2 0 0 0 0 0 0 0 0 0 0 0 0 0 0 0 0 0 0 0 0 0 0 0 0 0 0 0 0 0 0 0 0 0 0 0 0 0 0 0
12 11 10 5 0 0 0 0 0 0 0 0 0 0 0 0 0 0 0 0 0 0 0 0 0 0 0 0 0 0 0 0 0 0 0 0 0 0 0 0 0 0 0 0 0 0 0
0 11 16 21 6 0 0 0 0 0 0 0 0 0 0 0 0 0 0 0 0 0 0 0 0 0 0 0 0 0 0 0 0 0 0 0 0 0 0 0 0 0 0 0 0 0 0
0 0 0 22 26 9 2 0 0 0 0 3 0 0 0 0 0 0 0 0 0 0 0 0 0 0 0 0 0 0 0 0 0 0 0 0 0 0 0 0 0 0 0 0 0 0 0
8 2 1 17 27 32 24 14 0 0 0 0 11 0 0 0 0 0 0 0 0 0 0 0 0 0 0 0 0 0 0 0 0 0 0 0 0 0 0 0 0 0 0 0 0 0 0
15 11 10 12 25 20 31 32 19 0 0 0 0 19 0 0 0 0 0 0 0 0 0 0 0 0 0 0 0 0 0 0 0 0 0 0 0 0 0 0 0 0 0 0 0 0 0
17 11 15 18 7 2 7 27 27 18 3 0 0 11 1 0 0 0 0 0 0 0 0 0 0 0 0 0 0 0 0 0 0 0 0 0 0 0 0 0 0 0 0 0 0 0 0
27 35 21 15 14 15 14 25 21 12 16 12 0 13 11 4 0 0 0 0 0 0 0 0 0 0 0 0 0 0 0 0 0 0 0 0 0 0 0 0 0 0 0 0 0 0 0
29 35 28 14 12 9 44 34 19 5 0 0 7 15 43 2 0 0 0 0 0 0 0 0 0 0 0 0 0 0 0 0 0 0 0 0 0 0 0 0 0 0 0 0 0 0 0
30 32 29 22 31 24 19 35 27 19 4 0 0 11 15 0 0 0 0 0 0 0 3 0 0 0 0 0 0 0 0 0 0 0 0 0 0 0 0 0 0 0 0 0 0 0 0
35 33 23 11 13 22 15 19 22 29 19 0 0 9 8 1 0 0 0 0 2 5 0 0 0 0 0 0 0 0 0 0 0 0 0 0 0 0 0 0 0 0 0 0 0 0 0
35 37 29 18 13 24 17 16 24 22 1 1 5 14 4 10 0 0 0 0 0 7 2 0 0 0 0 0 0 0 0 0 0 0 0 0 0 0 0 0 0 0 0 1 6 18 0
46 38 21 5 8 14 16 15 17 2 2 9 12 10 1 22 0 0 0 2 16 0 1 0 0 0 0 0 0 0 0 0 0 0 0 0 2 0 0 0 0 0 0 0 0 0 0
47 28 7 17 18 19 17 10 1 0 2 8 13 15 1 4 0 0 0 0 17 0 24 21 0 0 0 0 0 0 0 0 0 0 0 12 5 0 0 0 0 0 0 3 4 0 0
27 1 6 14 18 17 6 5 3 2 3 5 9 5 2 0 0 1 0 45 6 8 5 33 0 0 0 0 0 0 0 0 0 7 0 6 9 1 0 0 0 0 1 1 14 3 5
18 1 3 15 28 11 6 1 0 2 2 0 0 0 0 0 5 7 6 8 9 8 26 24 0 0 0 0 0 0 0 0 8 0 0 7 1 0 0 0 0 2 0 6 9 39 27
19 2 2 14 31 20 4 0 1 1 0 0 0 0 11 7 0 0 1 2 1 66 1 0 0 0 1 0 0 0 0 1 2 6 13 16 15 0 1 17 33 14 25 35 31 13 83
3 1 1 16 42 25 5 0 1 0 0 0 1 6 11 3 0 4 3 16 44 50 0 0 0 6 10 50 0 1 4 7 37 43 20 10 4 0 14 23 2 9 21 6 9 10 7
1 0 1 16 9 8 4 10 3 1 0 0 3 1 1 2 1 8 9 10 23 2 0 0 0 0 0 4 0 2 0 18 5 1 0 11 3 14 11 1 0 0 0 0 0 24 41
1 0 6 16 0 7 9 19 36 41 32 16 10 2 1 0 3 15 6 54 2 2 1 0 12 0 0 0 0 0 0 4 0 0 0 4 13 4 2 0 0 0 0 2 5 11 31
0 0 0 27 0 16 11 17 27 24 5 3 3 6 0 0 7 22 34 36 1 0 0 7 0 0 0 0 0 0 0 1 0 2 0 18 24 0 0 0 0 0 0 0 0 1 2
7 2 0 25 10 12 2 14 21 9 6 15 0 12 1 7 22 41 13 2 0 2 0 0 0 14 4 0 0 0 0 6 24 13 12 29 36 8 1 0 6 7 0 0 3 2 2
5 3 7 4 25 28 14 24 16 15 7 30 34 45 12 28 31 13 5 0 1 0 0 0 5 12 0 0 0 0 0 2 20 19 30 41 36 39 37 8 23 2 0 1 3 3 0
7 13 18 16 15 8 13 15 10 15 4 22 22 39 11 21 18 6 3 0 2 0 5 10 19 18 0 2 13 7 0 1 1 8 16 15 27 46 28 39 0 5 0 0 1 2 2
9 11 14 25 24 30 11 8 13 3 0 3 32 5 13 11 24 4 15 2 8 14 35 0 1 0 0 24 77 8 6 1 13 16 23 7 16 45 71 22 30 0 0 1 4 2 0
25 29 15 17 30 23 20 13 10 13 0 0 46 45 55 54 22 35 42 23 17 17 2 0 0 0 14 11 80 31 25 3 24 2 2 19 35 32 50 27 2 0 1 0 4 2 0
37 47 42 8 12 19 27 18 9 4 0 0 100 120 112 85 45 73 59 41 61 41 8 2 12 0 0 2 9 7 80 14 10 10 6 10 44 50 35 17 11 0 0 5 0 0 0
41 43 45 31 17 10 15 16 3 0 0 0 68 85 79 9 6 0 0 0 1 42 68 1 0 0 0 0 1 48 39 32 0 39 0 12 2 5 0 2 0 0 6 0 1 0 0

GFSGBSN_con_sbcape_135.txt.gz
CAPE
0 0 0 0 0 0 0 2 0 0 0 0 0 0 0 0 0 0 0 0 0 0 0 0 0 0 0 0 0 0 0 0 0 0 0 0 0 0 0 0 0 0 0 0 0 0 0
9 0 0 0 0 0 0 0 0 0 0 0 0 0 0 0 0 0 0 0 0 0 0 0 0 0 0 0 0 0 0 0 0 0 0 0 0 0 0 0 0 0 0 0 0 0 0
13 15 13 7 1 0 0 0 0 0 0 0 0 0 0 0 0 0 0 0 0 0 0 0 0 0 0 0 0 0 0 0 0 0 0 0 0 0 0 0 0 0 0 0 0 0 0
2 0 1 16 15 2 0 0 0 0 0 1 0 0 0 0 0 0 0 0 0 0 0 0 0 0 0 0 0 0 0 0 0 0 0 0 0 0 0 0 0 0 0 0 0 0 0
0 0 0 2 7 19 6 1 0 0 0 0 1 0 0 0 0 0 0 0 0 0 0 0 0 0 0 0 0 0 0 0 0 0 0 0 0 0 0 0 0 0 0 0 0 0 0
0 2 5 7 10 19 25 25 16 2 0 0 0 2 0 0 0 0 0 0 0 0 0 0 0 0 0 0 0 0 0 0 0 0 0 0 0 0 0 0 0 0 0 0 0 0 0
2 8 1 3 17 11 4 17 27 15 3 0 0 0 5 0 0 0 0 0 0 0 0 0 0 0 0 0 0 0 0 0 0 0 0 0 0 0 0 0 0 0 0 0 0 0 0
25 6 3 4 10 5 3 8 24 22 24 10 0 0 0 0 0 0 0 0 0 0 0 0 0 0 0 0 0 0 0 0 0 0 0 0 0 0 0 0 0 0 0 0 0 0 0
41 14 16 3 5 11 13 17 22 24 24 25 20 1 18 1 0 0 0 0 0 0 0 0 0 0 0 0 0 0 0 0 0 0 0 0 0 0 0 0 0 0 0 0 0 0 0
45 43 20 7 10 10 11 7 28 27 16 1 2 13 9 0 0 0 0 0 0 0 0 0 0 0 0 0 0 0 0 0 0 0 0 0 0 0 0 0 0 0 0 0 0 0 0
33 48 15 7 17 19 15 27 18 42 24 7 0 0 12 0 0 0 0 0 0 0 22 0 0 0 0 0 0 0 0 0 0 0 0 0 0 0 0 0 0 0 0 0 0 0 0
45 44 35 33 24 15 5 9 20 23 43 25 10 1 29 3 1 0 0 0 0 4 1 0 0 0 0 0 0 0 0 0 0 0 0 0 0 0 0 0 0 0 0 0 0 0 0
54 54 45 46 34 26 17 8 20 22 31 44 15 3 22 7 5 0 0 0 5 24 2 0 0 0 0 0 0 0 0 0 0 0 0 0 0 0 0 0 0 0 0 0 0 0 0
54 53 56 51 39 24 19 14 16 26 36 37 11 9 15 28 2 0 0 17 36 0 0 0 0 0 0 0 0 0 0 0 0 0 0 0 0 0 0 0 0 0 0 0 0 0 0
58 54 54 43 23 6 10 15 24 26 34 29 24 16 16 23 18 0 7 28 0 0 0 0 0 0 0 0 0 0 0 0 0 0 0 11 7 0 0 0 0 0 0 0 1 0 0
44 50 50 36 15 12 12 20 19 14 18 26 21 27 6 10 9 0 21 10 0 0 0 0 0 0 0 0 0 0 0 0 0 0 0 17 1 9 0 0 0 0 0 0 2 0 0
60 51 49 10 4 10 8 3 15 12 13 19 14 34 0 1 0 1 3 0 0 0 0 13 7 0 0 0 0 0 0 0 0 0 0 1 1 0 9 0 0 0 0 0 0 2 2
65 59 37 0 0 1 30 3 6 4 4 11 21 4 4 0 0 0 0 0 0 0 0 0 85 8 0 0 0 0 0 0 0 0 0 2 0 0 10 32 16 5 3 1 0 0 1
66 65 24 0 0 16 11 0 0 0 1 0 0 1 1 0 0 0 0 0 0 1 0 1 1 0 0 0 0 0 0 0 2 1 8 7 0 0 8 26 53 6 11 0 1 0 0
58 57 2 0 2 5 8 3 2 3 2 0 0 0 2 0 0 0 3 16 19 1 15 10 0 0 0 0 0 0 0 7 20 12 14 14 38 21 32 1 0 0 0 0 0 0 0
63 38 0 0 7 2 3 4 3 19 13 0 2 0 0 0 0 2 1 2 22 32 22 4 0 0 0 0 0 0 0 16 6 11 1 25 28 14 4 1 0 0 0 0 0 0 3
74 49 3 0 15 1 1 0 10 26 17 9 0 4 0 0 4 6 6 12 0 14 36 0 0 0 0 0 0 0 0 21 2 2 3 8 7 0 0 0 0 0 0 0 0 0 1
78 66 0 0 21 1 0 3 3 8 8 17 2 18 2 1 1 5 0 0 2 23 7 0 0 0 0 0 0 0 21 9 13 8 1 18 5 0 0 0 0 0 0 0 0 0 0
83 48 11 0 0 25 0 7 9 10 3 3 12 28 11 0 0 1 6 0 30 5 0 0 0 0 0 0 0 0 2 13 49 8 0 22 1 1 1 0 1 0 0 0 0 0 0
77 18 12 16 10 33 11 1 5 14 6 5 2 4 0 0 0 27 56 16 1 0 0 0 0 0 0 1 4 6 2 7 3 18 37 35 23 5 3 0 0 0 0 0 0 0 0
50 16 22 28 42 30 17 4 6 6 9 2 5 1 4 0 4 1 1 0 0 0 0 0 0 0 0 29 32 13 10 13 3 0 30 13 5 0 2 14 17 0 0 0 0 0 0
50 32 20 30 39 33 35 1 0 5 7 1 0 1 8 4 0 0 0 0 0 2 1 0 0 0 0 0 46 17 11 9 6 0 0 0 0 0 0 3 0 0 0 0 0 0 0
51 43 26 15 35 17 5 0 2 12 2 4 0 4 24 11 4 1 2 0 3 1 0 0 0 0 0 1 22 9 10 28 27 10 0 0 1 0 0 10 3 0 0 0 0 0 0
44 44 45 20 8 12 12 10 17 6 30 12 2 28 37 0 0 1 0 0 6 0 0 0 0 0 0 0 0 0 29 11 0 0 0 1 0 0 0 0 0 0 0 0 0 0 0